DW4078 Weather Reports


Display with metric or nautical units.
time (UTC)temp
F
wind
direction
speed
MPH
gust
MPH
rain 1hr
in
rain 24hr
in
rain mn
in
humidity
%
barometer
mb
20260906150002 73 117 1.0 3.0 0.00 0.00 0.00 68 1018.9
20260906145902 73 109 1.0 3.0 0.00 0.00 0.00 69 1019.1
20260906145803 73 104 1.0 3.0 0.00 0.00 0.00 69 1018.9
20260906145702 73 103 1.0 3.0 0.00 0.00 0.00 69 1019.1
20260906145602 73 102 1.0 3.0 0.00 0.00 0.00 70 1019.1
20260906145502 73 100 1.0 4.0 0.00 0.00 0.00 69 1019.1
20260906145404 73 96 1.0 4.0 0.00 0.00 0.00 70 1019.1
20260906145306 72 96 1.0 4.0 0.00 0.00 0.00 69 1019.0
20260906145202 72 96 1.0 4.0 0.00 0.00 0.00 71 1018.9
20260906145123 72 96 1.0 4.0 0.00 0.00 0.00 71 1018.9
20260906145004 72 95 1.0 4.0 0.00 0.00 0.00 70 1018.8
20260906144924 72 97 1.0 4.0 0.00 0.00 0.00 69 1018.8
20260906144825 72 97 1.0 4.0 0.00 0.00 0.00 71 1019.1
20260906144702 72 99 1.0 4.0 0.00 0.00 0.00 71 1019.0
20260906144603 72 100 1.0 4.0 0.00 0.00 0.00 71 1019.0
20260906144502 72 102 1.0 4.0 0.00 0.00 0.00 71 1018.9
20260906144403 72 102 1.0 3.0 0.00 0.00 0.00 71 1018.8
20260906144302 72 102 1.0 3.0 0.00 0.00 0.00 73 1019.0
20260906144202 72 101 1.0 3.0 0.00 0.00 0.00 72 1018.9
20260906144103 72 99 1.0 3.0 0.00 0.00 0.00 71 1018.8
20260906144002 72 102 1.0 4.0 0.00 0.00 0.00 71 1018.8
20260906143925 72 103 1.0 4.0 0.00 0.00 0.00 71 1018.8
20260906143802 72 108 1.0 4.0 0.00 0.00 0.00 69 1018.9
20260906143704 72 107 1.0 4.0 0.00 0.00 0.00 71 1018.9
20260906143602 72 108 1.0 4.0 0.00 0.00 0.00 71 1018.8
20260906143504 72 107 1.0 4.0 0.00 0.00 0.00 72 1018.8
20260906143402 72 111 1.0 4.0 0.00 0.00 0.00 71 1018.7
20260906143302 72 112 1.0 4.0 0.00 0.00 0.00 72 1018.6
20260906143203 72 116 1.0 4.0 0.00 0.00 0.00 72 1018.8
20260906143102 72 118 1.0 4.0 0.00 0.00 0.00 72 1018.9
20260906143023 71 114 1.0 4.0 0.00 0.00 0.00 73 1018.7
20260906142923 71 113 1.0 4.0 0.00 0.00 0.00 73 1018.8
20260906142804 71 111 1.0 4.0 0.00 0.00 0.00 73 1018.8
20260906142702 71 109 1.0 4.0 0.00 0.00 0.00 73 1018.9
20260906142603 71 108 1.0 4.0 0.00 0.00 0.00 72 1018.7
20260906142524 71 109 1.0 4.0 0.00 0.00 0.00 74 1018.9
20260906142404 71 106 1.0 4.0 0.00 0.00 0.00 74 1018.9
20260906142325 71 106 1.0 4.0 0.00 0.00 0.00 74 1018.8
20260906142203 71 101 1.0 4.0 0.00 0.00 0.00 74 1018.9
20260906142102 71 102 1.0 4.0 0.00 0.00 0.00 75 1019.0
20260906142002 71 105 1.0 4.0 0.00 0.00 0.00 74 1018.9
20260906141903 71 105 1.0 4.0 0.00 0.00 0.00 75 1018.9
20260906141804 70 103 1.0 4.0 0.00 0.00 0.00 75 1018.7
20260906141702 70 103 1.0 4.0 0.00 0.00 0.00 75 1018.9
20260906141603 70 103 1.0 4.0 0.00 0.00 0.00 75 1018.9
20260906141503 70 102 1.0 4.0 0.00 0.00 0.00 75 1018.9
20260906141403 70 104 1.0 4.0 0.00 0.00 0.00 76 1018.7
20260906141324 70 105 1.0 4.0 0.00 0.00 0.00 76 1018.9
20260906141202 70 106 1.0 4.0 0.00 0.00 0.00 76 1018.6
20260906141102 70 105 1.0 4.0 0.00 0.00 0.00 75 1018.7
20260906141003 70 104 1.0 4.0 0.00 0.00 0.00 77 1018.8
20260906140902 70 101 1.0 3.0 0.00 0.00 0.00 78 1018.8
20260906140802 70 104 1.0 3.0 0.00 0.00 0.00 77 1018.7
20260906140702 70 102 1.0 6.0 0.00 0.00 0.00 77 1018.8
20260906140603 69 98 1.0 6.0 0.00 0.00 0.00 77 1018.8
20260906140502 69 99 1.0 6.0 0.00 0.00 0.00 78 1018.7
20260906140403 69 98 1.0 6.0 0.00 0.00 0.00 79 1018.8
20260906140304 69 97 1.0 6.0 0.00 0.00 0.00 79 1018.6
20260906140204 69 98 1.0 6.0 0.00 0.00 0.00 81 1018.7
20260906140125 69 99 1.0 6.0 0.00 0.00 0.00 81 1018.9
20260906140003 69 99 1.0 6.0 0.00 0.00 0.00 80 1018.8
20260906135904 69 100 1.0 6.0 0.00 0.00 0.00 79 1018.8
20260906135804 70 100 1.0 6.0 0.00 0.00 0.00 79 1018.6
20260906135702 70 103 1.0 4.0 0.00 0.00 0.00 78 1018.7
20260906135602 70 107 1.0 4.0 0.00 0.00 0.00 79 1018.8
20260906135503 69 107 1.0 4.0 0.00 0.00 0.00 77 1018.7
20260906135424 69 109 1.0 4.0 0.00 0.00 0.00 77 1018.7
20260906135323 69 108 1.0 3.0 0.00 0.00 0.00 78 1018.6
20260906135202 69 108 1.0 2.0 0.00 0.00 0.00 79 1018.7
20260906135103 69 109 1.0 2.0 0.00 0.00 0.00 80 1018.7
20260906135004 69 108 0.0 2.0 0.00 0.00 0.00 81 1018.6
20260906134903 69 108 0.0 2.0 0.00 0.00 0.00 81 1018.6
20260906134804 69 107 0.0 2.0 0.00 0.00 0.00 81 1018.7
20260906134703 69 103 0.0 2.0 0.00 0.00 0.00 81 1018.4
20260906134603 69 99 1.0 4.0 0.00 0.00 0.00 80 1018.4
20260906134523 68 98 1.0 4.0 0.00 0.00 0.00 80 1018.7
20260906134402 68 92 1.0 4.0 0.00 0.00 0.00 81 1018.5
20260906134325 68 92 0.0 4.0 0.00 0.00 0.00 81 1018.5
20260906134204 67 92 0.0 4.0 0.00 0.00 0.00 83 1018.5
20260906134124 67 94 1.0 4.0 0.00 0.00 0.00 85 1018.6
20260906134003 67 93 1.0 4.0 0.00 0.00 0.00 87 1018.5
20260906133923 66 93 1.0 4.0 0.00 0.00 0.00 87 1018.4
20260906133802 66 94 1.0 4.0 0.00 0.00 0.00 88 1018.6
20260906133702 65 94 1.0 4.0 0.00 0.00 0.00 89 1018.5
20260906133602 65 97 0.0 4.0 0.00 0.00 0.00 91 1018.7
20260906133502 64 105 0.0 3.0 0.00 0.00 0.00 94 1018.5
20260906133402 64 100 0.0 3.0 0.00 0.00 0.00 95 1018.6
20260906133303 64 99 0.0 6.0 0.00 0.00 0.00 96 1018.5
20260906133204 64 99 0.0 6.0 0.00 0.00 0.00 97 1018.5
20260906133124 63 97 0.0 6.0 0.00 0.00 0.00 98 1018.5
20260906133004 63 98 0.0 6.0 0.00 0.00 0.00 98 1018.6
20260906132902 63 98 0.0 6.0 0.00 0.00 0.00 98 1018.6
20260906132802 63 97 0.0 6.0 0.00 0.00 0.00 98 1018.5
20260906132703 63 102 0.0 6.0 0.00 0.00 0.00 99 1018.6
20260906132602 62 91 0.0 6.0 0.00 0.00 0.00 99 1018.7
20260906132502 62 91 0.0 6.0 0.00 0.00 0.00 99 1018.4
20260906132423 62 92 0.0 6.0 0.00 0.00 0.00 99 1018.5
20260906132306 62 85 0.0 3.0 0.00 0.00 0.00 99 1018.7
20260906132202 62 88 0.0 3.0 0.00 0.00 0.00 99 1018.5
20260906132103 62 94 0.0 3.0 0.00 0.00 0.00 99 1018.5
20260906132002 62 96 0.0 3.0 0.00 0.00 0.00 99 1018.6
20260906131902 62 96 0.0 3.0 0.00 0.00 0.00 99 1018.7
20260906131802 62 95 0.0 3.0 0.00 0.00 0.00 99 1018.7
20260906131724 62 89 0.0 3.0 0.00 0.00 0.00 99 1018.7
20260906131602 62 114 0.0 1.0 0.00 0.00 0.00 99 1018.6
20260906131525 61 114 0.0 1.0 0.00 0.00 0.00 99 1018.6
20260906131403 61 114 0.0 1.0 0.00 0.00 0.00 99 1018.6
20260906131304 62 115 0.0 1.0 0.00 0.00 0.00 99 1018.5
20260906131224 62 115 0.0 1.0 0.00 0.00 0.00 99 1018.5
20260906131125 62 122 0.0 1.0 0.00 0.00 0.00 99 1018.3
20260906131002 62 0 0.0 0.0 0.00 0.00 0.00 99 1018.4
20260906130902 62 123 0.0 2.0 0.00 0.00 0.00 99 1018.3
20260906130802 62 123 0.0 2.0 0.00 0.00 0.00 99 1018.5
20260906130725 62 123 0.0 2.0 0.00 0.00 0.00 99 1018.5
20260906130603 62 123 0.0 2.0 0.00 0.00 0.00 99 1018.5
20260906130503 62 123 0.0 2.0 0.00 0.00 0.00 99 1018.5
20260906130403 61 123 0.0 2.0 0.00 0.00 0.00 99 1018.3
20260906130303 61 123 0.0 2.0 0.00 0.00 0.00 99 1018.3
20260906130203 61 123 0.0 2.0 0.00 0.00 0.00 99 1018.4
20260906130124 61 123 0.0 2.0 0.00 0.00 0.00 99 1018.3
20260906130004 61 123 0.0 2.0 0.00 0.00 0.00 99 1018.6
20260906125903 60 0 0.0 0.0 0.00 0.00 0.00 99 1018.5
20260906125802 60 0 0.0 0.0 0.00 0.00 0.00 99 1018.5
20260906125703 60 0 0.0 0.0 0.00 0.00 0.00 99 1018.4
20260906125603 60 0 0.0 0.0 0.00 0.00 0.00 99 1018.4
20260906125502 60 0 0.0 0.0 0.00 0.00 0.00 99 1018.6
20260906125404 59 0 0.0 0.0 0.00 0.00 0.00 99 1018.3
20260906125305 59 0 0.0 0.0 0.00 0.00 0.00 99 1018.4
20260906125204 59 0 0.0 0.0 0.00 0.00 0.00 99 1018.4
20260906125104 59 0 0.0 0.0 0.00 0.00 0.00 99 1018.3
20260906125024 59 0 0.0 0.0 0.00 0.00 0.00 99 1018.4
20260906124904 59 0 0.0 0.0 0.00 0.00 0.00 99 1018.5
20260906124802 59 0 0.0 0.0 0.00 0.00 0.00 99 1018.4
20260906124702 59 0 0.0 0.0 0.00 0.00 0.00 99 1018.3
20260906124604 59 0 0.0 0.0 0.00 0.00 0.00 99 1018.3
20260906124524 59 0 0.0 0.0 0.00 0.00 0.00 99 1018.3
20260906124402 59 0 0.0 0.0 0.00 0.00 0.00 99 1018.3
20260906124302 59 0 0.0 0.0 0.00 0.00 0.00 99 1018.2
20260906124204 59 0 0.0 0.0 0.00 0.00 0.00 99 1018.3
20260906124103 58 0 0.0 0.0 0.00 0.00 0.00 99 1018.2
20260906124024 58 0 0.0 0.0 0.00 0.00 0.00 99 1018.3
20260906123923 58 0 0.0 0.0 0.00 0.00 0.00 99 1018.2
20260906123802 58 0 0.0 0.0 0.00 0.00 0.00 99 1018.2
20260906123702 58 0 0.0 0.0 0.00 0.00 0.00 99 1018.3
20260906123602 58 0 0.0 0.0 0.00 0.00 0.00 99 1018.3
20260906123503 58 0 0.0 0.0 0.00 0.00 0.00 99 1018.3
20260906123403 58 0 0.0 0.0 0.00 0.00 0.00 99 1018.0
20260906123302 58 0 0.0 0.0 0.00 0.00 0.00 99 1018.1
20260906123202 58 0 0.0 0.0 0.00 0.00 0.00 99 1018.2
20260906123102 58 0 0.0 0.0 0.00 0.00 0.00 99 1018.1
20260906123023 58 0 0.0 0.0 0.00 0.00 0.00 99 1018.2
20260906122925 58 0 0.0 0.0 0.00 0.00 0.00 99 1018.3
20260906122802 57 0 0.0 0.0 0.00 0.00 0.00 99 1018.0
20260906122702 57 0 0.0 0.0 0.00 0.00 0.00 99 1018.0
20260906122602 57 0 0.0 0.0 0.00 0.00 0.00 99 1018.0
20260906122504 57 0 0.0 0.0 0.00 0.00 0.00 99 1018.0
20260906122403 57 0 0.0 0.0 0.00 0.00 0.00 99 1018.1
20260906122305 57 0 0.0 0.0 0.00 0.00 0.00 99 1018.2
20260906122202 57 0 0.0 0.0 0.00 0.00 0.00 99 1018.2
20260906122102 57 0 0.0 0.0 0.00 0.00 0.00 99 1018.2
20260906122003 57 0 0.0 0.0 0.00 0.00 0.00 99 1018.3
20260906121925 57 0 0.0 0.0 0.00 0.00 0.00 99 1018.3
20260906121802 57 0 0.0 0.0 0.00 0.00 0.00 99 1018.1
20260906121702 57 0 0.0 0.0 0.00 0.00 0.00 99 1018.1
20260906121602 57 0 0.0 0.0 0.00 0.00 0.00 99 1018.1
20260906121525 57 0 0.0 0.0 0.00 0.00 0.00 99 1018.1
20260906121402 57 0 0.0 0.0 0.00 0.00 0.00 99 1018.1
20260906121324 56 0 0.0 0.0 0.00 0.00 0.00 99 1018.1
20260906121202 56 0 0.0 0.0 0.00 0.00 0.00 99 1018.2
20260906121103 56 0 0.0 0.0 0.00 0.00 0.00 99 1018.1
20260906121025 56 0 0.0 0.0 0.00 0.00 0.00 99 1018.1
20260906120904 56 0 0.0 0.0 0.00 0.00 0.00 99 1018.4
20260906120802 56 0 0.0 0.0 0.00 0.00 0.00 99 1018.0
20260906120704 56 0 0.0 0.0 0.00 0.00 0.00 99 1018.0
20260906120602 56 0 0.0 0.0 0.00 0.00 0.00 99 1018.1
20260906120503 56 0 0.0 0.0 0.00 0.00 0.00 99 1018.1
20260906120423 56 0 0.0 0.0 0.00 0.00 0.00 99 1018.1
20260906120302 55 0 0.0 0.0 0.00 0.00 0.00 99 1018.1
20260906120202 55 0 0.0 0.0 0.00 0.00 0.00 99 1018.1
20260906120003 55 0 0.0 0.0 0.00 0.00 0.00 99 1018.2
20260906115902 55 0 0.0 0.0 0.00 0.00 0.00 99 1018.1
20260906115804 55 0 0.0 0.0 0.00 0.00 0.00 99 1018.0
20260906115702 54 0 0.0 0.0 0.00 0.00 0.00 99 1017.9
20260906115602 54 0 0.0 0.0 0.00 0.00 0.00 99 1018.0
20260906115502 54 0 0.0 0.0 0.00 0.00 0.00 99 1018.1
20260906115402 54 0 0.0 0.0 0.00 0.00 0.00 99 1018.2
20260906115306 54 0 0.0 0.0 0.00 0.00 0.00 99 1018.1
20260906115204 54 0 0.0 0.0 0.00 0.00 0.00 99 1017.9
20260906115103 54 0 0.0 0.0 0.00 0.00 0.00 99 1017.9
20260906115002 54 0 0.0 0.0 0.00 0.00 0.00 99 1017.9
20260906114923 54 0 0.0 0.0 0.00 0.00 0.00 99 1018.0
20260906114824 54 0 0.0 0.0 0.00 0.00 0.00 99 1017.8
20260906114702 54 0 0.0 0.0 0.00 0.00 0.00 99 1017.8
20260906114602 54 0 0.0 0.0 0.00 0.00 0.00 99 1017.9
20260906114502 54 0 0.0 0.0 0.00 0.00 0.00 99 1018.0
20260906114404 54 0 0.0 0.0 0.00 0.00 0.00 99 1018.0
20260906114304 54 0 0.0 0.0 0.00 0.00 0.00 99 1017.8
20260906114202 54 0 0.0 0.0 0.00 0.00 0.00 99 1017.8
20260906114103 54 0 0.0 0.0 0.00 0.00 0.00 99 1017.9
20260906114004 54 0 0.0 0.0 0.00 0.00 0.00 99 1017.6
20260906113902 54 0 0.0 0.0 0.00 0.00 0.00 99 1017.8
20260906113802 54 0 0.0 0.0 0.00 0.00 0.00 99 1017.8
20260906113723 54 0 0.0 0.0 0.00 0.00 0.00 99 1017.9
20260906113624 54 0 0.0 0.0 0.00 0.00 0.00 99 1017.7
20260906113525 54 0 0.0 0.0 0.00 0.00 0.00 99 1017.8
20260906113402 54 0 0.0 0.0 0.00 0.00 0.00 99 1017.6
20260906113302 54 0 0.0 0.0 0.00 0.00 0.00 99 1017.7
20260906113202 54 0 0.0 0.0 0.00 0.00 0.00 99 1017.8
20260906113102 54 0 0.0 0.0 0.00 0.00 0.00 99 1017.6
20260906113003 54 0 0.0 0.0 0.00 0.00 0.00 99 1017.8
20260906112902 54 0 0.0 0.0 0.00 0.00 0.00 99 1017.6
20260906112804 54 0 0.0 0.0 0.00 0.00 0.00 99 1017.8
20260906112725 54 0 0.0 0.0 0.00 0.00 0.00 99 1017.7
20260906112623 54 0 0.0 0.0 0.00 0.00 0.00 99 1017.8
20260906112524 54 0 0.0 0.0 0.00 0.00 0.00 99 1017.6
20260906112403 54 0 0.0 0.0 0.00 0.00 0.00 99 1017.6
20260906112306 53 0 0.0 0.0 0.00 0.00 0.00 99 1017.7
20260906112204 53 0 0.0 0.0 0.00 0.00 0.00 99 1017.5
20260906112102 53 0 0.0 0.0 0.00 0.00 0.00 99 1017.4
20260906112003 53 0 0.0 0.0 0.00 0.00 0.00 99 1017.5
20260906111902 54 0 0.0 0.0 0.00 0.00 0.00 99 1017.5
20260906111804 54 0 0.0 0.0 0.00 0.00 0.00 99 1017.3
20260906111702 54 0 0.0 0.0 0.00 0.00 0.00 99 1017.5
20260906111602 54 0 0.0 0.0 0.00 0.00 0.00 99 1017.3
20260906111502 54 0 0.0 0.0 0.00 0.00 0.00 99 1017.4
20260906111403 54 0 0.0 0.0 0.00 0.00 0.00 99 1017.5
20260906111302 54 0 0.0 0.0 0.00 0.00 0.00 99 1017.5
20260906111203 54 0 0.0 0.0 0.00 0.00 0.00 99 1017.3
20260906111103 54 0 0.0 0.0 0.00 0.00 0.00 99 1017.4
20260906111023 53 0 0.0 0.0 0.00 0.00 0.00 99 1017.4
20260906110903 53 0 0.0 0.0 0.00 0.00 0.00 99 1017.3
20260906110804 53 0 0.0 0.0 0.00 0.00 0.00 99 1017.5
20260906110702 53 0 0.0 0.0 0.00 0.00 0.00 99 1017.4
20260906110603 53 0 0.0 0.0 0.00 0.00 0.00 99 1017.4
20260906110502 54 0 0.0 0.0 0.00 0.00 0.00 99 1017.3
20260906110423 54 0 0.0 0.0 0.00 0.00 0.00 99 1017.3
20260906110302 54 0 0.0 0.0 0.00 0.00 0.00 99 1017.2
20260906110224 54 0 0.0 0.0 0.00 0.00 0.00 99 1017.2
20260906110104 54 0 0.0 0.0 0.00 0.00 0.00 99 1017.3
20260906110003 54 0 0.0 0.0 0.00 0.00 0.00 99 1017.2
20260906105923 54 0 0.0 0.0 0.00 0.00 0.00 99 1017.3
20260906105804 54 0 0.0 0.0 0.00 0.00 0.00 99 1017.3
20260906105703 54 0 0.0 0.0 0.00 0.00 0.00 99 1017.5
20260906105603 54 0 0.0 0.0 0.00 0.00 0.00 99 1017.3
20260906105525 53 0 0.0 0.0 0.00 0.00 0.00 99 1017.1
20260906105423 53 0 0.0 0.0 0.00 0.00 0.00 99 1017.4
20260906105305 53 0 0.0 0.0 0.00 0.00 0.00 99 1017.5
20260906105203 53 0 0.0 0.0 0.00 0.00 0.00 99 1017.4
20260906105103 54 0 0.0 0.0 0.00 0.00 0.00 99 1017.2
20260906105024 54 0 0.0 0.0 0.00 0.00 0.00 99 1017.5
20260906104903 54 0 0.0 0.0 0.00 0.00 0.00 99 1017.5
20260906104802 54 0 0.0 0.0 0.00 0.00 0.00 99 1017.5
20260906104723 54 0 0.0 0.0 0.00 0.00 0.00 99 1017.5
20260906104602 54 0 0.0 0.0 0.00 0.00 0.00 99 1017.4
20260906104502 54 0 0.0 0.0 0.00 0.00 0.00 99 1017.4
20260906104402 54 0 0.0 0.0 0.00 0.00 0.00 99 1017.3
20260906104304 54 0 0.0 0.0 0.00 0.00 0.00 99 1017.3
20260906104223 54 0 0.0 0.0 0.00 0.00 0.00 99 1017.4
20260906104103 54 0 0.0 0.0 0.00 0.00 0.00 99 1017.4
20260906104002 54 0 0.0 0.0 0.00 0.00 0.00 99 1017.4
20260906103902 54 0 0.0 0.0 0.00 0.00 0.00 99 1017.6
20260906103803 54 0 0.0 0.0 0.00 0.00 0.00 99 1017.5
20260906103703 54 0 0.0 0.0 0.00 0.00 0.00 99 1017.4
20260906103603 54 0 0.0 0.0 0.00 0.00 0.00 99 1017.3
20260906103523 54 0 0.0 0.0 0.00 0.00 0.00 99 1017.4
20260906103402 54 0 0.0 0.0 0.00 0.00 0.00 99 1017.6
20260906103302 54 0 0.0 0.0 0.00 0.00 0.00 99 1017.6
20260906103202 54 0 0.0 0.0 0.00 0.00 0.00 99 1017.4
20260906103104 54 0 0.0 0.0 0.00 0.00 0.00 99 1017.2
20260906103004 54 0 0.0 0.0 0.00 0.00 0.00 99 1017.5
20260906102923 54 0 0.0 0.0 0.00 0.00 0.00 99 1017.5
20260906102804 54 0 0.0 0.0 0.00 0.00 0.00 99 1017.3
20260906102702 54 0 0.0 0.0 0.00 0.00 0.00 99 1017.2
20260906102603 54 0 0.0 0.0 0.00 0.00 0.00 99 1017.1
20260906102502 54 0 0.0 0.0 0.00 0.00 0.00 99 1017.3
20260906102402 54 0 0.0 0.0 0.00 0.00 0.00 99 1017.3
20260906102306 54 0 0.0 0.0 0.00 0.00 0.00 99 1017.3
20260906102204 54 0 0.0 0.0 0.00 0.00 0.00 99 1017.2
20260906102123 54 0 0.0 0.0 0.00 0.00 0.00 99 1017.3
20260906102002 54 0 0.0 0.0 0.00 0.00 0.00 99 1017.4
20260906101923 54 0 0.0 0.0 0.00 0.00 0.00 99 1017.4
20260906101804 54 0 0.0 0.0 0.00 0.00 0.00 99 1017.3
20260906101704 54 0 0.0 0.0 0.00 0.00 0.00 99 1017.4
20260906101604 54 0 0.0 0.0 0.00 0.00 0.00 99 1017.3
20260906101503 54 0 0.0 0.0 0.00 0.00 0.00 99 1017.3
20260906101402 54 0 0.0 0.0 0.00 0.00 0.00 99 1017.4
20260906101302 54 0 0.0 0.0 0.00 0.00 0.00 99 1017.4
20260906101202 54 0 0.0 0.0 0.00 0.00 0.00 99 1017.3
20260906101102 54 0 0.0 0.0 0.00 0.00 0.00 99 1017.3
20260906101024 54 0 0.0 0.0 0.00 0.00 0.00 99 1017.3
20260906100902 54 0 0.0 0.0 0.00 0.00 0.00 99 1017.2
20260906100823 54 0 0.0 0.0 0.00 0.00 0.00 99 1017.2
20260906100725 54 0 0.0 0.0 0.00 0.00 0.00 99 1017.2
20260906100602 54 0 0.0 0.0 0.00 0.00 0.00 99 1017.3
20260906100503 54 0 0.0 0.0 0.00 0.00 0.00 99 1017.3
20260906100424 54 0 0.0 0.0 0.00 0.00 0.00 99 1017.2
20260906100303 54 0 0.0 0.0 0.00 0.00 0.00 99 1017.2
20260906100202 54 0 0.0 0.0 0.00 0.00 0.00 99 1017.2
20260906100103 54 0 0.0 0.0 0.00 0.00 0.00 99 1017.3
20260906100003 54 0 0.0 0.0 0.00 0.00 0.00 99 1017.1
20260906095903 54 0 0.0 0.0 0.00 0.00 0.00 99 1017.1
20260906095803 54 0 0.0 0.0 0.00 0.00 0.00 99 1017.2
20260906095704 54 0 0.0 0.0 0.00 0.00 0.00 99 1017.3
20260906095603 54 0 0.0 0.0 0.00 0.00 0.00 99 1017.2
20260906095504 54 0 0.0 0.0 0.00 0.00 0.00 99 1017.1
20260906095403 54 0 0.0 0.0 0.00 0.00 0.00 99 1017.2
20260906095325 54 0 0.0 0.0 0.00 0.00 0.00 99 1017.3
20260906095203 54 0 0.0 0.0 0.00 0.00 0.00 99 1017.1
20260906095103 54 0 0.0 0.0 0.00 0.00 0.00 99 1017.2
20260906095004 54 0 0.0 0.0 0.00 0.00 0.00 99 1017.3
20260906094904 54 0 0.0 0.0 0.00 0.00 0.00 99 1017.1
20260906094802 55 0 0.0 0.0 0.00 0.00 0.00 99 1017.2
20260906094704 55 0 0.0 0.0 0.00 0.00 0.00 99 1016.9
20260906094604 55 0 0.0 0.0 0.00 0.00 0.00 99 1017.1
20260906094502 54 0 0.0 0.0 0.00 0.00 0.00 99 1017.1
20260906094403 54 0 0.0 0.0 0.00 0.00 0.00 99 1017.1
20260906094302 54 0 0.0 0.0 0.00 0.00 0.00 99 1017.1
20260906094202 54 0 0.0 0.0 0.00 0.00 0.00 99 1017.2
20260906094104 54 0 0.0 0.0 0.00 0.00 0.00 99 1017.1
20260906094004 54 0 0.0 0.0 0.00 0.00 0.00 99 1017.1
20260906093902 55 0 0.0 0.0 0.00 0.00 0.00 99 1017.1
20260906093804 55 0 0.0 0.0 0.00 0.00 0.00 99 1017.1
20260906093703 55 0 0.0 0.0 0.00 0.00 0.00 99 1017.0
20260906093625 55 0 0.0 0.0 0.00 0.00 0.00 99 1017.2
20260906093502 55 0 0.0 0.0 0.00 0.00 0.00 99 1017.2
20260906093404 55 0 0.0 0.0 0.00 0.00 0.00 99 1017.1
20260906093303 55 0 0.0 0.0 0.00 0.00 0.00 99 1017.2
20260906093202 55 0 0.0 0.0 0.00 0.00 0.00 99 1017.2
20260906093104 55 0 0.0 0.0 0.00 0.00 0.00 99 1017.3
20260906093002 55 0 0.0 0.0 0.00 0.00 0.00 99 1017.2
20260906092903 55 0 0.0 0.0 0.00 0.00 0.00 99 1016.9
20260906092803 55 0 0.0 0.0 0.00 0.00 0.00 99 1017.2
20260906092724 55 0 0.0 0.0 0.00 0.00 0.00 99 1017.3
20260906092602 55 0 0.0 0.0 0.00 0.00 0.00 99 1017.2
20260906092524 55 0 0.0 0.0 0.00 0.00 0.00 99 1017.1
20260906092404 55 0 0.0 0.0 0.00 0.00 0.00 99 1017.1
20260906092306 55 0 0.0 0.0 0.00 0.00 0.00 99 1017.1
20260906092203 55 0 0.0 0.0 0.00 0.00 0.00 99 1017.0
20260906092102 55 0 0.0 0.0 0.00 0.00 0.00 99 1017.1
20260906092003 55 0 0.0 0.0 0.00 0.00 0.00 99 1017.1
20260906091902 55 0 0.0 0.0 0.00 0.00 0.00 99 1017.1
20260906091802 55 0 0.0 0.0 0.00 0.00 0.00 99 1017.2
20260906091702 55 0 0.0 0.0 0.00 0.00 0.00 99 1017.2
20260906091602 55 0 0.0 0.0 0.00 0.00 0.00 99 1017.1
20260906091504 55 0 0.0 0.0 0.00 0.00 0.00 99 1017.2
20260906091423 55 0 0.0 0.0 0.00 0.00 0.00 99 1017.2
20260906091304 55 0 0.0 0.0 0.00 0.00 0.00 99 1017.1
20260906091203 55 0 0.0 0.0 0.00 0.00 0.00 99 1016.9
20260906091102 55 0 0.0 0.0 0.00 0.00 0.00 99 1017.2
20260906091003 55 0 0.0 0.0 0.00 0.00 0.00 99 1017.1
20260906090902 55 0 0.0 0.0 0.00 0.00 0.00 99 1017.0
20260906090803 55 0 0.0 0.0 0.00 0.00 0.00 99 1017.2
20260906090702 55 0 0.0 0.0 0.00 0.00 0.00 99 1017.0
20260906090603 55 0 0.0 0.0 0.00 0.00 0.00 99 1017.0
20260906090502 55 0 0.0 0.0 0.00 0.00 0.00 99 1017.2
20260906090402 55 0 0.0 0.0 0.00 0.00 0.00 99 1017.1
20260906090302 55 0 0.0 0.0 0.00 0.00 0.00 99 1017.3
20260906090202 55 0 0.0 0.0 0.00 0.00 0.00 99 1017.1
20260906090023 55 0 0.0 0.0 0.00 0.00 0.00 99 1017.3
20260906085902 55 0 0.0 0.0 0.00 0.00 0.00 99 1017.1
20260906085804 55 0 0.0 0.0 0.00 0.00 0.00 99 1017.0
20260906085702 55 0 0.0 0.0 0.00 0.00 0.00 99 1017.2
20260906085603 55 0 0.0 0.0 0.00 0.00 0.00 99 1017.1
20260906085503 55 0 0.0 0.0 0.00 0.00 0.00 99 1017.1
20260906085402 55 0 0.0 0.0 0.00 0.00 0.00 99 1017.3
20260906085306 55 0 0.0 0.0 0.00 0.00 0.00 99 1017.2
20260906085224 55 0 0.0 0.0 0.00 0.00 0.00 99 1017.2
20260906085102 55 0 0.0 0.0 0.00 0.00 0.00 99 1017.0
20260906085002 55 0 0.0 0.0 0.00 0.00 0.00 99 1017.0
20260906084903 55 0 0.0 0.0 0.00 0.00 0.00 99 1017.1
20260906084802 55 0 0.0 0.0 0.00 0.00 0.00 99 1017.1
20260906084703 55 0 0.0 0.0 0.00 0.00 0.00 99 1017.2
20260906084604 55 0 0.0 0.0 0.00 0.00 0.00 99 1017.1
20260906084523 55 0 0.0 0.0 0.00 0.00 0.00 99 1017.1
20260906084402 55 0 0.0 0.0 0.00 0.00 0.00 99 1017.2
20260906084323 55 0 0.0 0.0 0.00 0.00 0.00 99 1017.1
20260906084204 55 0 0.0 0.0 0.00 0.00 0.00 99 1017.0
20260906084103 55 0 0.0 0.0 0.00 0.00 0.00 99 1017.0
20260906084025 55 0 0.0 0.0 0.00 0.00 0.00 99 1017.1
20260906083902 55 0 0.0 0.0 0.00 0.00 0.00 99 1017.0
20260906083803 55 0 0.0 0.0 0.00 0.00 0.00 99 1017.1
20260906083702 55 0 0.0 0.0 0.00 0.00 0.00 99 1017.0
20260906083604 55 0 0.0 0.0 0.00 0.00 0.00 99 1016.9
20260906083504 56 0 0.0 0.0 0.00 0.00 0.00 99 1016.9
20260906083403 56 0 0.0 0.0 0.00 0.00 0.00 99 1016.8
20260906083323 56 0 0.0 0.0 0.00 0.00 0.00 99 1016.9
20260906083223 56 0 0.0 0.0 0.00 0.00 0.00 99 1016.9
20260906083104 56 0 0.0 0.0 0.00 0.00 0.00 99 1016.8
20260906083003 56 0 0.0 0.0 0.00 0.00 0.00 99 1016.8
20260906082904 56 0 0.0 0.0 0.00 0.00 0.00 99 1016.8
20260906082804 56 0 0.0 0.0 0.00 0.00 0.00 99 1016.8
20260906082723 55 0 0.0 0.0 0.00 0.00 0.00 99 1016.8
20260906082603 55 0 0.0 0.0 0.00 0.00 0.00 99 1016.6
20260906082502 55 0 0.0 0.0 0.00 0.00 0.00 99 1016.7
20260906082402 55 0 0.0 0.0 0.00 0.00 0.00 99 1016.5
20260906082305 55 0 0.0 0.0 0.00 0.00 0.00 99 1016.9
20260906082203 55 0 0.0 0.0 0.00 0.00 0.00 99 1016.9
20260906082103 55 0 0.0 0.0 0.00 0.00 0.00 99 1016.8
20260906082002 55 0 0.0 0.0 0.00 0.00 0.00 99 1016.8
20260906081902 55 0 0.0 0.0 0.00 0.00 0.00 99 1016.9
20260906081802 55 0 0.0 0.0 0.00 0.00 0.00 99 1016.9
20260906081703 55 0 0.0 0.0 0.00 0.00 0.00 99 1016.8
20260906081602 55 0 0.0 0.0 0.00 0.00 0.00 99 1016.8
20260906081504 55 0 0.0 0.0 0.00 0.00 0.00 99 1016.7
20260906081403 55 0 0.0 0.0 0.00 0.00 0.00 99 1016.8
20260906081302 55 0 0.0 0.0 0.00 0.00 0.00 99 1016.6
20260906081203 55 0 0.0 0.0 0.00 0.00 0.00 99 1016.8
20260906081103 55 0 0.0 0.0 0.00 0.00 0.00 99 1016.9
20260906081024 55 0 0.0 0.0 0.00 0.00 0.00 99 1016.9
20260906080923 55 0 0.0 0.0 0.00 0.00 0.00 99 1016.8
20260906080803 55 0 0.0 0.0 0.00 0.00 0.00 99 1016.7
20260906080703 55 0 0.0 0.0 0.00 0.00 0.00 99 1016.7
20260906080604 55 0 0.0 0.0 0.00 0.00 0.00 99 1016.7
20260906080502 55 0 0.0 0.0 0.00 0.00 0.00 99 1016.6
20260906080402 55 0 0.0 0.0 0.00 0.00 0.00 99 1016.7
20260906080304 55 0 0.0 0.0 0.00 0.00 0.00 99 1016.7
20260906080202 55 0 0.0 0.0 0.00 0.00 0.00 99 1016.8
20260906080104 55 0 0.0 0.0 0.00 0.00 0.00 99 1016.8
20260906080002 55 0 0.0 0.0 0.00 0.00 0.00 99 1016.7
20260906075902 55 0 0.0 0.0 0.00 0.00 0.00 99 1016.8
20260906075824 55 0 0.0 0.0 0.00 0.00 0.00 99 1016.6
20260906075703 55 0 0.0 0.0 0.00 0.00 0.00 99 1016.8
20260906075604 55 0 0.0 0.0 0.00 0.00 0.00 99 1016.6
20260906075502 55 0 0.0 0.0 0.00 0.00 0.00 99 1016.6
20260906075402 55 0 0.0 0.0 0.00 0.00 0.00 99 1016.5
20260906075306 55 0 0.0 0.0 0.00 0.00 0.00 99 1016.6
20260906075223 55 0 0.0 0.0 0.00 0.00 0.00 99 1016.6
20260906075103 55 0 0.0 0.0 0.00 0.00 0.00 99 1016.6
20260906075004 55 0 0.0 0.0 0.00 0.00 0.00 99 1016.6
20260906074902 55 0 0.0 0.0 0.00 0.00 0.00 99 1016.6
20260906074803 55 0 0.0 0.0 0.00 0.00 0.00 99 1016.5
20260906074702 55 0 0.0 0.0 0.00 0.00 0.00 99 1016.5
20260906074602 55 0 0.0 0.0 0.00 0.00 0.00 99 1016.4
20260906074502 55 0 0.0 0.0 0.00 0.00 0.00 99 1016.5
20260906074403 55 0 0.0 0.0 0.00 0.00 0.00 99 1016.5
20260906074303 55 0 0.0 0.0 0.00 0.00 0.00 99 1016.6
20260906074202 55 0 0.0 0.0 0.00 0.00 0.00 99 1016.5
20260906074125 55 0 0.0 0.0 0.00 0.00 0.00 99 1016.5
20260906074002 55 0 0.0 0.0 0.00 0.00 0.00 99 1016.5
20260906073904 55 0 0.0 0.0 0.00 0.00 0.00 99 1016.7
20260906073803 55 0 0.0 0.0 0.00 0.00 0.00 99 1016.4
20260906073703 55 0 0.0 0.0 0.00 0.00 0.00 99 1016.5
20260906073602 55 0 0.0 0.0 0.00 0.00 0.00 99 1016.7
20260906073503 55 0 0.0 0.0 0.00 0.00 0.00 99 1016.5
20260906073424 55 0 0.0 0.0 0.00 0.00 0.00 99 1016.5
20260906073304 55 0 0.0 0.0 0.00 0.00 0.00 99 1016.7
20260906073203 55 0 0.0 0.0 0.00 0.00 0.00 99 1016.6
20260906073102 55 0 0.0 0.0 0.00 0.00 0.00 99 1016.6
20260906073004 55 0 0.0 0.0 0.00 0.00 0.00 99 1016.7
20260906072903 55 0 0.0 0.0 0.00 0.00 0.00 99 1016.6
20260906072804 55 0 0.0 0.0 0.00 0.00 0.00 99 1016.6
20260906072702 55 0 0.0 0.0 0.00 0.00 0.00 99 1016.5
20260906072624 55 0 0.0 0.0 0.00 0.00 0.00 99 1016.5
20260906072504 55 0 0.0 0.0 0.00 0.00 0.00 99 1016.6
20260906072402 55 0 0.0 0.0 0.00 0.00 0.00 99 1016.6
20260906072305 55 0 0.0 0.0 0.00 0.00 0.00 99 1016.5
20260906072204 55 0 0.0 0.0 0.00 0.00 0.00 99 1016.6
20260906072103 55 0 0.0 0.0 0.00 0.00 0.00 99 1016.2
20260906072002 55 0 0.0 0.0 0.00 0.00 0.00 99 1016.5
20260906071904 55 0 0.0 0.0 0.00 0.00 0.00 99 1016.3
20260906071825 55 0 0.0 0.0 0.00 0.00 0.00 99 1016.3
20260906071702 55 0 0.0 0.0 0.00 0.00 0.00 99 1016.4
20260906071603 55 0 0.0 0.0 0.00 0.00 0.00 99 1016.5
20260906071523 55 0 0.0 0.0 0.00 0.00 0.00 99 1016.5
20260906071402 55 0 0.0 0.0 0.00 0.00 0.00 99 1016.3
20260906071302 55 0 0.0 0.0 0.00 0.00 0.00 99 1016.4
20260906071224 55 0 0.0 0.0 0.00 0.00 0.00 99 1016.4
20260906071102 55 0 0.0 0.0 0.00 0.00 0.00 99 1016.5
20260906071002 55 0 0.0 0.0 0.00 0.00 0.00 99 1016.5
20260906070903 56 0 0.0 0.0 0.00 0.00 0.00 99 1016.5
20260906070803 56 0 0.0 0.0 0.00 0.00 0.00 99 1016.6
20260906070702 56 0 0.0 0.0 0.00 0.00 0.00 99 1016.5
20260906070602 56 0 0.0 0.0 0.00 0.00 0.00 99 1016.6
20260906070504 56 0 0.0 0.0 0.00 0.00 0.00 99 1016.6
20260906070402 56 0 0.0 0.0 0.00 0.00 0.00 99 1016.5
20260906070302 56 0 0.0 0.0 0.00 0.00 0.00 99 1016.5
20260906070203 56 0 0.0 0.0 0.00 0.00 0.00 99 1016.5
20260906070124 56 0 0.0 0.0 0.00 0.00 0.00 99 1016.6
20260906070023 56 0 0.0 0.0 0.00 0.00 0.00 99 1016.5
20260906065904 56 0 0.0 0.0 0.00 0.00 0.00 99 1016.5
20260906065803 56 0 0.0 0.0 0.00 0.00 0.00 99 1016.6
20260906065703 56 0 0.0 0.0 0.00 0.00 0.00 99 1016.7
20260906065623 56 0 0.0 0.0 0.00 0.00 0.00 99 1016.4
20260906065524 56 0 0.0 0.0 0.00 0.00 0.00 99 1016.5
20260906065425 56 0 0.0 0.0 0.00 0.00 0.00 99 1016.6
20260906065305 56 0 0.0 0.0 0.00 0.00 0.00 99 1016.5
20260906065224 56 0 0.0 0.0 0.00 0.00 0.00 99 1016.6
20260906065104 56 0 0.0 0.0 0.00 0.00 0.00 99 1016.5
20260906065025 56 0 0.0 0.0 0.00 0.00 0.00 99 1016.6
20260906064924 56 0 0.0 0.0 0.00 0.00 0.00 99 1016.4
20260906064803 56 0 0.0 0.0 0.00 0.00 0.00 99 1016.6
20260906064702 56 0 0.0 0.0 0.00 0.00 0.00 99 1016.6
20260906064624 56 0 0.0 0.0 0.00 0.00 0.00 99 1016.5
20260906064524 56 0 0.0 0.0 0.00 0.00 0.00 99 1016.4
20260906064404 56 0 0.0 0.0 0.00 0.00 0.00 99 1016.5
20260906064303 56 0 0.0 0.0 0.00 0.00 0.00 99 1016.8
20260906064202 56 0 0.0 0.0 0.00 0.00 0.00 99 1016.4
20260906064102 56 0 0.0 0.0 0.00 0.00 0.00 99 1016.5
20260906064003 56 0 0.0 0.0 0.00 0.00 0.00 99 1016.5
20260906063902 56 0 0.0 0.0 0.00 0.00 0.00 99 1016.4
20260906063804 56 0 0.0 0.0 0.00 0.00 0.00 99 1016.4
20260906063724 56 0 0.0 0.0 0.00 0.00 0.00 99 1016.6
20260906063604 56 0 0.0 0.0 0.00 0.00 0.00 99 1016.4
20260906063523 56 0 0.0 0.0 0.00 0.00 0.00 99 1016.6
20260906063404 56 0 0.0 0.0 0.00 0.00 0.00 99 1016.4
20260906063303 56 0 0.0 0.0 0.00 0.00 0.00 99 1016.5
20260906063225 56 0 0.0 0.0 0.00 0.00 0.00 99 1016.7
20260906063102 56 0 0.0 0.0 0.00 0.00 0.00 99 1016.4
20260906063003 56 0 0.0 0.0 0.00 0.00 0.00 99 1016.5
20260906062902 56 0 0.0 0.0 0.00 0.00 0.00 99 1016.4
20260906062804 56 0 0.0 0.0 0.00 0.00 0.00 99 1016.5
20260906062725 56 0 0.0 0.0 0.00 0.00 0.00 99 1016.4
20260906062603 56 0 0.0 0.0 0.00 0.00 0.00 99 1016.4
20260906062502 56 0 0.0 0.0 0.00 0.00 0.00 99 1016.4
20260906062402 56 0 0.0 0.0 0.00 0.00 0.00 99 1016.5
20260906062305 56 0 0.0 0.0 0.00 0.00 0.00 99 1016.3
20260906062203 56 0 0.0 0.0 0.00 0.00 0.00 99 1016.5
20260906062123 56 0 0.0 0.0 0.00 0.00 0.00 99 1016.5
20260906062003 56 0 0.0 0.0 0.00 0.00 0.00 99 1016.4
20260906061903 56 0 0.0 0.0 0.00 0.00 0.00 99 1016.5
20260906061803 56 0 0.0 0.0 0.00 0.00 0.00 99 1016.4
20260906061704 56 0 0.0 0.0 0.00 0.00 0.00 99 1016.6
20260906061603 56 0 0.0 0.0 0.00 0.00 0.00 99 1016.3
20260906061503 56 0 0.0 0.0 0.00 0.00 0.00 99 1016.6
20260906061403 56 0 0.0 0.0 0.00 0.00 0.00 99 1016.6
20260906061303 56 0 0.0 0.0 0.00 0.00 0.00 99 1016.5
20260906061204 56 0 0.0 0.0 0.00 0.00 0.00 99 1016.5
20260906061104 56 0 0.0 0.0 0.00 0.00 0.00 99 1016.5
20260906061023 56 0 0.0 0.0 0.00 0.00 0.00 99 1016.5
20260906060924 56 0 0.0 0.0 0.00 0.00 0.00 99 1016.4
20260906060804 56 0 0.0 0.0 0.00 0.00 0.00 99 1016.5
20260906060703 56 0 0.0 0.0 0.00 0.00 0.00 99 1016.3
20260906060602 56 0 0.0 0.0 0.00 0.00 0.00 99 1016.5
20260906060523 56 0 0.0 0.0 0.00 0.00 0.00 99 1016.5
20260906060403 56 0 0.0 0.0 0.00 0.00 0.00 99 1016.2
20260906060303 56 0 0.0 0.0 0.00 0.00 0.00 99 1016.6
20260906060204 56 0 0.0 0.0 0.00 0.00 0.00 99 1016.2
20260906060003 56 0 0.0 0.0 0.00 0.00 0.00 99 1016.5
20260906055902 56 0 0.0 0.0 0.00 0.00 0.00 99 1016.4
20260906055802 56 0 0.0 0.0 0.00 0.00 0.00 99 1016.4
20260906055703 56 0 0.0 0.0 0.00 0.00 0.00 99 1016.5
20260906055603 56 0 0.0 0.0 0.00 0.00 0.00 99 1016.5
20260906055502 56 0 0.0 0.0 0.00 0.00 0.00 99 1016.4
20260906055404 56 0 0.0 0.0 0.00 0.00 0.00 99 1016.3
20260906055306 56 0 0.0 0.0 0.00 0.00 0.00 99 1016.3
20260906055202 56 0 0.0 0.0 0.00 0.00 0.00 99 1016.4
20260906055103 56 0 0.0 0.0 0.00 0.00 0.00 99 1016.3
20260906055003 56 0 0.0 0.0 0.00 0.00 0.00 99 1016.5
20260906054902 56 0 0.0 0.0 0.00 0.00 0.00 99 1016.4
20260906054802 56 0 0.0 0.0 0.00 0.00 0.00 98 1016.3
20260906054723 56 0 0.0 0.0 0.00 0.00 0.00 98 1016.3
20260906054602 56 0 0.0 0.0 0.00 0.00 0.00 98 1016.3
20260906054503 56 0 0.0 0.0 0.00 0.00 0.00 98 1016.3
20260906054404 56 0 0.0 0.0 0.00 0.00 0.00 98 1016.3
20260906054303 56 0 0.0 0.0 0.00 0.00 0.00 98 1016.2
20260906054203 56 0 0.0 0.0 0.00 0.00 0.00 98 1016.3
20260906054103 56 0 0.0 0.0 0.00 0.00 0.00 98 1016.2
20260906054003 56 0 0.0 0.0 0.00 0.00 0.00 98 1016.2
20260906053903 56 0 0.0 0.0 0.00 0.00 0.00 99 1016.0
20260906053802 56 0 0.0 0.0 0.00 0.00 0.00 98 1016.0
20260906053702 56 0 0.0 0.0 0.00 0.00 0.00 98 1016.2
20260906053603 56 0 0.0 0.0 0.00 0.00 0.00 99 1016.2
20260906053524 56 0 0.0 0.0 0.00 0.00 0.00 98 1016.0
20260906053425 56 0 0.0 0.0 0.00 0.00 0.00 98 1016.1
20260906053325 56 0 0.0 0.0 0.00 0.00 0.00 98 1016.2
20260906053202 56 0 0.0 0.0 0.00 0.00 0.00 98 1016.0
20260906053104 56 0 0.0 0.0 0.00 0.00 0.00 98 1016.1
20260906053003 56 0 0.0 0.0 0.00 0.00 0.00 98 1016.3
20260906052902 56 0 0.0 0.0 0.00 0.00 0.00 98 1016.3
20260906052802 57 0 0.0 0.0 0.00 0.00 0.00 98 1016.1
20260906052703 57 0 0.0 0.0 0.00 0.00 0.00 98 1016.4
20260906052603 57 0 0.0 0.0 0.00 0.00 0.00 98 1016.3
20260906052503 57 0 0.0 0.0 0.00 0.00 0.00 98 1016.2
20260906052404 57 0 0.0 0.0 0.00 0.00 0.00 98 1016.4
20260906052305 57 0 0.0 0.0 0.00 0.00 0.00 98 1016.1
20260906052202 57 0 0.0 0.0 0.00 0.00 0.00 98 1016.1
20260906052102 57 0 0.0 0.0 0.00 0.00 0.00 98 1016.2
20260906052024 57 0 0.0 0.0 0.00 0.00 0.00 98 1016.2
20260906051904 57 0 0.0 0.0 0.00 0.00 0.00 98 1016.2
20260906051802 57 0 0.0 0.0 0.00 0.00 0.00 98 1016.3
20260906051724 57 0 0.0 0.0 0.00 0.00 0.00 98 1016.3
20260906051602 57 0 0.0 0.0 0.00 0.00 0.00 98 1016.3
20260906051503 57 0 0.0 0.0 0.00 0.00 0.00 98 1016.2
20260906051425 57 0 0.0 0.0 0.00 0.00 0.00 98 1016.2
20260906051302 57 0 0.0 0.0 0.00 0.00 0.00 98 1016.3
20260906051204 57 0 0.0 0.0 0.00 0.00 0.00 98 1016.3
20260906051124 57 0 0.0 0.0 0.00 0.00 0.00 98 1016.4
20260906051004 57 0 0.0 0.0 0.00 0.00 0.00 98 1016.4
20260906050923 57 0 0.0 0.0 0.00 0.00 0.00 98 1016.2
20260906050803 57 0 0.0 0.0 0.00 0.00 0.00 98 1016.4
20260906050703 57 0 0.0 0.0 0.00 0.00 0.00 98 1016.4
20260906050602 57 0 0.0 0.0 0.00 0.00 0.00 98 1016.4
20260906050503 57 0 0.0 0.0 0.00 0.00 0.00 98 1016.6
20260906050404 57 0 0.0 0.0 0.00 0.00 0.00 98 1016.5
20260906050323 57 0 0.0 0.0 0.00 0.00 0.00 98 1016.5
20260906050203 57 0 0.0 0.0 0.00 0.00 0.00 98 1016.4
20260906050104 57 0 0.0 0.0 0.00 0.00 0.00 98 1016.3
20260906050002 57 0 0.0 0.0 0.00 0.00 0.00 98 1016.4
20260906045902 57 0 0.0 0.0 0.00 0.00 0.00 98 1016.4
20260906045802 57 0 0.0 0.0 0.00 0.00 0.00 98 1016.3
20260906045702 57 0 0.0 0.0 0.00 0.00 0.00 98 1016.3
20260906045625 57 0 0.0 0.0 0.00 0.00 0.00 98 1016.4
20260906045503 57 0 0.0 0.0 0.00 0.00 0.00 98 1016.4
20260906045403 57 0 0.0 0.0 0.00 0.00 0.00 98 1016.5
20260906045306 57 0 0.0 0.0 0.00 0.00 0.00 98 1016.3
20260906045202 57 0 0.0 0.0 0.00 0.00 0.00 98 1016.4
20260906045102 57 0 0.0 0.0 0.00 0.00 0.00 98 1016.5
20260906045003 57 0 0.0 0.0 0.00 0.00 0.00 98 1016.3
20260906044902 57 0 0.0 0.0 0.00 0.00 0.00 98 1016.4
20260906044823 57 0 0.0 0.0 0.00 0.00 0.00 98 1016.4
20260906044703 57 0 0.0 0.0 0.00 0.00 0.00 98 1016.4
20260906044603 57 0 0.0 0.0 0.00 0.00 0.00 98 1016.3
20260906044525 57 0 0.0 0.0 0.00 0.00 0.00 98 1016.3
20260906044402 57 0 0.0 0.0 0.00 0.00 0.00 98 1016.4
20260906044303 57 0 0.0 0.0 0.00 0.00 0.00 98 1016.3
20260906044224 57 0 0.0 0.0 0.00 0.00 0.00 98 1016.5
20260906044103 57 0 0.0 0.0 0.00 0.00 0.00 98 1016.5
20260906044003 57 0 0.0 0.0 0.00 0.00 0.00 98 1016.2
20260906043924 57 0 0.0 0.0 0.00 0.00 0.00 98 1016.4
20260906043803 58 0 0.0 0.0 0.00 0.00 0.00 98 1016.4
20260906043704 58 0 0.0 0.0 0.00 0.00 0.00 98 1016.5
20260906043603 57 0 0.0 0.0 0.00 0.00 0.00 98 1016.4
20260906043502 57 0 0.0 0.0 0.00 0.00 0.00 98 1016.5
20260906043402 57 0 0.0 0.0 0.00 0.00 0.00 98 1016.5
20260906043302 57 0 0.0 0.0 0.00 0.00 0.00 98 1016.3
20260906043202 57 0 0.0 0.0 0.00 0.00 0.00 98 1016.5
20260906043103 57 0 0.0 0.0 0.00 0.00 0.00 98 1016.4
20260906043024 57 0 0.0 0.0 0.00 0.00 0.00 98 1016.3
20260906042902 57 0 0.0 0.0 0.00 0.00 0.00 98 1016.5
20260906042825 57 0 0.0 0.0 0.00 0.00 0.00 98 1016.3
20260906042702 57 0 0.0 0.0 0.00 0.00 0.00 98 1016.4
20260906042602 57 0 0.0 0.0 0.00 0.00 0.00 98 1016.4
20260906042504 58 0 0.0 0.0 0.00 0.00 0.00 98 1016.4
20260906042403 58 0 0.0 0.0 0.00 0.00 0.00 98 1016.4
20260906042306 58 0 0.0 0.0 0.00 0.00 0.00 98 1016.3
20260906042202 58 0 0.0 0.0 0.00 0.00 0.00 98 1016.4
20260906042103 58 0 0.0 0.0 0.00 0.00 0.00 98 1016.2
20260906042003 58 0 0.0 0.0 0.00 0.00 0.00 98 1016.4
20260906041904 58 0 0.0 0.0 0.00 0.00 0.00 98 1016.3
20260906041803 58 0 0.0 0.0 0.00 0.00 0.00 98 1016.5
20260906041704 58 0 0.0 0.0 0.00 0.00 0.00 98 1016.5
20260906041602 58 0 0.0 0.0 0.00 0.00 0.00 98 1016.7
20260906041504 58 0 0.0 0.0 0.00 0.00 0.00 98 1016.6
20260906041404 58 0 0.0 0.0 0.00 0.00 0.00 98 1016.4
20260906041302 58 0 0.0 0.0 0.00 0.00 0.00 98 1016.4
20260906041204 58 0 0.0 0.0 0.00 0.00 0.00 98 1016.4
20260906041102 58 0 0.0 0.0 0.00 0.00 0.00 98 1016.7
20260906041002 58 0 0.0 0.0 0.00 0.00 0.00 98 1016.8
20260906040925 58 0 0.0 0.0 0.00 0.00 0.00 98 1016.8
20260906040825 58 0 0.0 0.0 0.00 0.00 0.00 98 1016.3
20260906040704 58 0 0.0 0.0 0.00 0.00 0.00 98 1016.5
20260906040603 58 0 0.0 0.0 0.00 0.00 0.00 98 1016.6
20260906040502 58 0 0.0 0.0 0.00 0.00 0.00 98 1016.7
20260906040404 58 0 0.0 0.0 0.00 0.00 0.00 98 1016.7
20260906040324 58 0 0.0 0.0 0.00 0.00 0.00 98 1016.7
20260906040202 58 0 0.0 0.0 0.00 0.00 0.00 98 1016.8
20260906040025 58 0 0.0 0.0 0.00 0.00 0.00 98 1016.6
20260906035903 58 0 0.0 0.0 0.00 0.00 0.00 98 1016.8
20260906035804 58 0 0.0 0.0 0.00 0.00 0.00 98 1016.5
20260906035704 58 0 0.0 0.0 0.00 0.00 0.00 98 1016.6
20260906035603 58 0 0.0 0.0 0.00 0.00 0.00 98 1016.5
20260906035502 58 0 0.0 0.0 0.00 0.00 0.00 97 1016.6
20260906035402 58 0 0.0 0.0 0.00 0.00 0.00 97 1016.5
20260906035324 58 0 0.0 0.0 0.00 0.00 0.00 97 1016.7
20260906035203 58 0 0.0 0.0 0.00 0.00 0.00 97 1016.4
20260906035102 58 0 0.0 0.0 0.00 0.00 0.00 97 1016.6
20260906035003 58 0 0.0 0.0 0.00 0.00 0.00 98 1016.6
20260906034903 58 0 0.0 0.0 0.00 0.00 0.00 97 1016.4
20260906034803 58 0 0.0 0.0 0.00 0.00 0.00 97 1016.6
20260906034724 58 0 0.0 0.0 0.00 0.00 0.00 97 1016.5
20260906034603 58 0 0.0 0.0 0.00 0.00 0.00 98 1016.5
20260906034503 58 0 0.0 0.0 0.00 0.00 0.00 97 1016.4
20260906034425 58 0 0.0 0.0 0.00 0.00 0.00 97 1016.5
20260906034303 58 0 0.0 0.0 0.00 0.00 0.00 97 1016.6
20260906034204 58 0 0.0 0.0 0.00 0.00 0.00 97 1016.3
20260906034103 58 0 0.0 0.0 0.00 0.00 0.00 97 1016.5
20260906034023 58 0 0.0 0.0 0.00 0.00 0.00 97 1016.4
20260906033902 58 0 0.0 0.0 0.00 0.00 0.00 97 1016.4
20260906033803 58 0 0.0 0.0 0.00 0.00 0.00 97 1016.4
20260906033702 58 0 0.0 0.0 0.00 0.00 0.00 97 1016.5
20260906033603 58 0 0.0 0.0 0.00 0.00 0.00 97 1016.4
20260906033502 58 0 0.0 0.0 0.00 0.00 0.00 97 1016.3
20260906033402 58 0 0.0 0.0 0.00 0.00 0.00 97 1016.4
20260906033324 58 0 0.0 0.0 0.00 0.00 0.00 97 1016.3
20260906033203 58 0 0.0 0.0 0.00 0.00 0.00 97 1016.5
20260906033102 58 0 0.0 0.0 0.00 0.00 0.00 97 1016.6
20260906033003 58 0 0.0 0.0 0.00 0.00 0.00 97 1016.6
20260906032903 58 0 0.0 0.0 0.00 0.00 0.00 97 1016.6
20260906032802 58 0 0.0 0.0 0.00 0.00 0.00 97 1016.6
20260906032704 58 0 0.0 0.0 0.00 0.00 0.00 97 1016.6
20260906032624 58 0 0.0 0.0 0.00 0.00 0.00 97 1016.6
20260906032503 58 0 0.0 0.0 0.00 0.00 0.00 97 1016.5
20260906032404 59 0 0.0 0.0 0.00 0.00 0.00 97 1016.5
20260906032306 59 0 0.0 0.0 0.00 0.00 0.00 97 1016.4
20260906032204 58 0 0.0 0.0 0.00 0.00 0.00 97 1016.3
20260906032102 59 0 0.0 0.0 0.00 0.00 0.00 97 1016.6
20260906032024 59 0 0.0 0.0 0.00 0.00 0.00 97 1016.6
20260906031903 59 0 0.0 0.0 0.00 0.00 0.00 97 1016.7
20260906031802 59 0 0.0 0.0 0.00 0.00 0.00 97 1016.5
20260906031724 59 0 0.0 0.0 0.00 0.00 0.00 97 1016.5
20260906031603 59 0 0.0 0.0 0.00 0.00 0.00 97 1016.4
20260906031502 59 0 0.0 0.0 0.00 0.00 0.00 97 1016.5
20260906031404 59 0 0.0 0.0 0.00 0.00 0.00 97 1016.5
20260906031302 59 0 0.0 0.0 0.00 0.00 0.00 97 1016.6
20260906031203 59 0 0.0 0.0 0.00 0.00 0.00 97 1016.6
20260906031102 59 0 0.0 0.0 0.00 0.00 0.00 97 1016.5
20260906031003 58 0 0.0 0.0 0.00 0.00 0.00 97 1016.4
20260906030903 58 0 0.0 0.0 0.00 0.00 0.00 97 1016.6
20260906030804 58 0 0.0 0.0 0.00 0.00 0.00 96 1016.7
20260906030704 58 0 0.0 0.0 0.00 0.00 0.00 96 1016.6
20260906030623 58 0 0.0 0.0 0.00 0.00 0.00 96 1016.6
20260906030503 59 0 0.0 0.0 0.00 0.00 0.00 96 1016.5
20260906030425 59 0 0.0 0.0 0.00 0.00 0.00 96 1016.4
20260906030304 59 0 0.0 0.0 0.00 0.00 0.00 96 1016.6
20260906030224 59 0 0.0 0.0 0.00 0.00 0.00 96 1016.5
20260906030004 59 0 0.0 0.0 0.00 0.00 0.00 96 1016.4
20260906025904 59 0 0.0 0.0 0.00 0.00 0.00 96 1016.5
20260906025824 59 0 0.0 0.0 0.00 0.00 0.00 96 1016.6
20260906025704 59 0 0.0 0.0 0.00 0.00 0.00 96 1016.6
20260906025623 59 0 0.0 0.0 0.00 0.00 0.00 96 1016.5
20260906025503 59 0 0.0 0.0 0.00 0.00 0.00 96 1016.5
20260906025404 59 0 0.0 0.0 0.00 0.00 0.00 96 1016.4
20260906025306 59 0 0.0 0.0 0.00 0.00 0.00 96 1016.5
20260906025204 59 0 0.0 0.0 0.00 0.00 0.00 96 1016.5
20260906025104 59 0 0.0 0.0 0.00 0.00 0.00 96 1016.3
20260906025003 59 0 0.0 0.0 0.00 0.00 0.00 96 1016.4
20260906024904 59 0 0.0 0.0 0.00 0.00 0.00 96 1016.3
20260906024825 59 0 0.0 0.0 0.00 0.00 0.00 96 1016.3
20260906024703 59 0 0.0 0.0 0.00 0.00 0.00 96 1016.4
20260906024604 59 0 0.0 0.0 0.00 0.00 0.00 96 1016.3
20260906024502 59 0 0.0 0.0 0.00 0.00 0.00 96 1016.4
20260906024403 59 0 0.0 0.0 0.00 0.00 0.00 96 1016.3
20260906024302 59 0 0.0 0.0 0.00 0.00 0.00 96 1016.3
20260906024203 59 0 0.0 0.0 0.00 0.00 0.00 96 1016.2
20260906024103 59 0 0.0 0.0 0.00 0.00 0.00 96 1016.4
20260906024004 59 0 0.0 0.0 0.00 0.00 0.00 96 1016.2
20260906023902 59 0 0.0 0.0 0.00 0.00 0.00 96 1016.3
20260906023804 59 0 0.0 0.0 0.00 0.00 0.00 95 1016.4
20260906023702 59 0 0.0 0.0 0.00 0.00 0.00 95 1016.4
20260906023602 59 0 0.0 0.0 0.00 0.00 0.00 95 1016.4
20260906023502 59 0 0.0 0.0 0.00 0.00 0.00 95 1016.3
20260906023402 59 0 0.0 0.0 0.00 0.00 0.00 95 1016.3
20260906023303 59 0 0.0 0.0 0.00 0.00 0.00 95 1016.5
20260906023203 59 0 0.0 0.0 0.00 0.00 0.00 95 1016.4
20260906023102 59 0 0.0 0.0 0.00 0.00 0.00 95 1016.3
20260906023004 59 0 0.0 0.0 0.00 0.00 0.00 95 1016.4
20260906022903 59 0 0.0 0.0 0.00 0.00 0.00 95 1016.4
20260906022802 59 0 0.0 0.0 0.00 0.00 0.00 95 1016.3
20260906022703 59 0 0.0 0.0 0.00 0.00 0.00 95 1016.3
20260906022625 59 0 0.0 0.0 0.00 0.00 0.00 95 1016.3
20260906022503 59 0 0.0 0.0 0.00 0.00 0.00 95 1016.1
20260906022404 59 0 0.0 0.0 0.00 0.00 0.00 95 1016.3
20260906022306 59 0 0.0 0.0 0.00 0.00 0.00 95 1016.3
20260906022202 59 0 0.0 0.0 0.00 0.00 0.00 95 1016.2
20260906022103 59 0 0.0 0.0 0.00 0.00 0.00 95 1016.3
20260906022002 59 0 0.0 0.0 0.00 0.00 0.00 95 1016.2
20260906021903 60 0 0.0 0.0 0.00 0.00 0.00 95 1016.1
20260906021824 60 0 0.0 0.0 0.00 0.00 0.00 95 1016.1
20260906021704 60 0 0.0 0.0 0.00 0.00 0.00 95 1015.9
20260906021603 60 0 0.0 0.0 0.00 0.00 0.00 95 1016.1
20260906021502 60 0 0.0 0.0 0.00 0.00 0.00 95 1016.0
20260906021403 60 0 0.0 0.0 0.00 0.00 0.00 95 1016.0
20260906021302 60 0 0.0 0.0 0.00 0.00 0.00 95 1016.2
20260906021204 60 0 0.0 0.0 0.00 0.00 0.00 95 1016.1
20260906021104 60 0 0.0 0.0 0.00 0.00 0.00 95 1016.0
20260906021004 60 0 0.0 0.0 0.00 0.00 0.00 94 1016.2
20260906020904 60 0 0.0 0.0 0.00 0.00 0.00 94 1016.3
20260906020802 60 0 0.0 0.0 0.00 0.00 0.00 94 1016.1
20260906020703 60 0 0.0 0.0 0.00 0.00 0.00 94 1016.2
20260906020603 60 0 0.0 0.0 0.00 0.00 0.00 94 1016.0
20260906020503 60 0 0.0 0.0 0.00 0.00 0.00 94 1016.2
20260906020402 60 0 0.0 0.0 0.00 0.00 0.00 94 1016.3
20260906020323 60 0 0.0 0.0 0.00 0.00 0.00 94 1016.1
20260906020203 60 0 0.0 0.0 0.00 0.00 0.00 94 1016.1
20260906020003 60 0 0.0 0.0 0.00 0.00 0.00 94 1016.1
20260906015902 60 0 0.0 0.0 0.00 0.00 0.00 94 1016.1
20260906015803 60 0 0.0 0.0 0.00 0.00 0.00 94 1016.3
20260906015704 60 0 0.0 0.0 0.00 0.00 0.00 94 1016.1
20260906015602 60 0 0.0 0.0 0.00 0.00 0.00 94 1016.1
20260906015502 60 0 0.0 0.0 0.00 0.00 0.00 94 1016.1
20260906015425 60 0 0.0 0.0 0.00 0.00 0.00 94 1016.2
20260906015305 60 0 0.0 0.0 0.00 0.00 0.00 94 1016.1
20260906015225 60 0 0.0 0.0 0.00 0.00 0.00 94 1016.1
20260906015102 60 0 0.0 0.0 0.00 0.00 0.00 94 1016.1
20260906015002 60 0 0.0 0.0 0.00 0.00 0.00 94 1016.0
20260906014904 60 0 0.0 0.0 0.00 0.00 0.00 94 1016.0
20260906014823 60 0 0.0 0.0 0.00 0.00 0.00 94 1016.1
20260906014703 60 0 0.0 0.0 0.00 0.00 0.00 94 1016.0
20260906014604 60 0 0.0 0.0 0.00 0.00 0.00 94 1016.0
20260906014504 60 0 0.0 0.0 0.00 0.00 0.00 94 1016.0
20260906014402 60 0 0.0 0.0 0.00 0.00 0.00 94 1016.1
20260906014304 60 0 0.0 0.0 0.00 0.00 0.00 93 1016.0
20260906014224 60 0 0.0 0.0 0.00 0.00 0.00 93 1015.9
20260906014104 61 0 0.0 0.0 0.00 0.00 0.00 93 1016.0
20260906014003 61 0 0.0 0.0 0.00 0.00 0.00 93 1015.9
20260906013902 61 0 0.0 0.0 0.00 0.00 0.00 93 1016.0
20260906013802 61 0 0.0 0.0 0.00 0.00 0.00 93 1015.9
20260906013702 61 0 0.0 0.0 0.00 0.00 0.00 93 1015.9
20260906013604 61 0 0.0 0.0 0.00 0.00 0.00 93 1016.0
20260906013502 61 0 0.0 0.0 0.00 0.00 0.00 93 1016.0
20260906013403 61 0 0.0 0.0 0.00 0.00 0.00 93 1015.9
20260906013303 61 0 0.0 0.0 0.00 0.00 0.00 93 1015.9
20260906013203 61 0 0.0 0.0 0.00 0.00 0.00 93 1015.9
20260906013103 61 0 0.0 0.0 0.00 0.00 0.00 93 1016.0
20260906013002 61 0 0.0 0.0 0.00 0.00 0.00 93 1016.1
20260906012904 61 0 0.0 0.0 0.00 0.00 0.00 93 1016.1
20260906012804 61 0 0.0 0.0 0.00 0.00 0.00 93 1016.0
20260906012702 61 0 0.0 0.0 0.00 0.00 0.00 93 1016.0
20260906012602 61 0 0.0 0.0 0.00 0.00 0.00 93 1016.0
20260906012503 61 0 0.0 0.0 0.00 0.00 0.00 93 1016.0
20260906012403 61 0 0.0 0.0 0.00 0.00 0.00 93 1016.1
20260906012306 61 0 0.0 0.0 0.00 0.00 0.00 93 1016.0
20260906012203 61 0 0.0 0.0 0.00 0.00 0.00 93 1016.0
20260906012102 61 0 0.0 0.0 0.00 0.00 0.00 93 1016.1
20260906012003 61 0 0.0 0.0 0.00 0.00 0.00 92 1016.0
20260906011925 61 0 0.0 0.0 0.00 0.00 0.00 92 1015.7
20260906011823 61 0 0.0 0.0 0.00 0.00 0.00 92 1016.0
20260906011704 62 0 0.0 0.0 0.00 0.00 0.00 92 1015.9
20260906011604 62 0 0.0 0.0 0.00 0.00 0.00 92 1015.7
20260906011503 62 0 0.0 0.0 0.00 0.00 0.00 92 1015.6
20260906011403 62 0 0.0 0.0 0.00 0.00 0.00 92 1016.0
20260906011303 62 0 0.0 0.0 0.00 0.00 0.00 92 1015.7
20260906011204 62 0 0.0 0.0 0.00 0.00 0.00 92 1015.6
20260906011102 62 0 0.0 0.0 0.00 0.00 0.00 91 1015.7
20260906011003 62 0 0.0 0.0 0.00 0.00 0.00 91 1015.7
20260906010903 62 0 0.0 0.0 0.00 0.00 0.00 91 1015.7
20260906010802 62 0 0.0 0.0 0.00 0.00 0.00 91 1015.6
20260906010704 62 0 0.0 0.0 0.00 0.00 0.00 91 1015.6
20260906010604 62 0 0.0 0.0 0.00 0.00 0.00 91 1015.9
20260906010503 62 0 0.0 0.0 0.00 0.00 0.00 90 1015.7
20260906010404 62 0 0.0 0.0 0.00 0.00 0.00 90 1015.7
20260906010302 62 0 0.0 0.0 0.00 0.00 0.00 90 1015.6
20260906010203 62 0 0.0 0.0 0.00 0.00 0.00 90 1015.7
20260906010103 62 0 0.0 0.0 0.00 0.00 0.00 90 1015.7
20260906010003 62 0 0.0 0.0 0.00 0.00 0.00 90 1015.6
20260906005902 62 0 0.0 0.0 0.00 0.00 0.00 89 1015.6
20260906005803 63 0 0.0 0.0 0.00 0.00 0.00 89 1015.5
20260906005703 63 0 0.0 0.0 0.00 0.00 0.00 89 1015.4
20260906005603 63 0 0.0 0.0 0.00 0.00 0.00 89 1015.5
20260906005503 63 0 0.0 0.0 0.00 0.00 0.00 89 1015.5
20260906005403 63 0 0.0 0.0 0.00 0.00 0.00 89 1015.7
20260906005306 63 0 0.0 0.0 0.00 0.00 0.00 88 1015.5
20260906005224 63 0 0.0 0.0 0.00 0.00 0.00 88 1015.5
20260906005104 63 0 0.0 0.0 0.00 0.00 0.00 88 1015.5
20260906005004 63 0 0.0 0.0 0.00 0.00 0.00 88 1015.7
20260906004904 63 0 0.0 0.0 0.00 0.00 0.00 87 1015.5
20260906004804 63 0 0.0 0.0 0.00 0.00 0.00 87 1015.6
20260906004704 63 0 0.0 0.0 0.00 0.00 0.00 87 1015.4
20260906004604 63 0 0.0 0.0 0.00 0.00 0.00 87 1015.7
20260906004504 63 0 0.0 0.0 0.00 0.00 0.00 86 1015.5
20260906004404 63 0 0.0 0.0 0.00 0.00 0.00 86 1015.6
20260906004303 64 0 0.0 0.0 0.00 0.00 0.00 86 1015.4
20260906004223 64 0 0.0 0.0 0.00 0.00 0.00 86 1015.4
20260906004103 64 0 0.0 0.0 0.00 0.00 0.00 86 1015.5
20260906004003 64 0 0.0 0.0 0.00 0.00 0.00 86 1015.4
20260906003902 64 0 0.0 0.0 0.00 0.00 0.00 85 1015.3
20260906003803 64 0 0.0 0.0 0.00 0.00 0.00 85 1015.6
20260906003704 64 0 0.0 0.0 0.00 0.00 0.00 85 1015.6
20260906003604 64 0 0.0 0.0 0.00 0.00 0.00 84 1015.6
20260906003502 64 0 0.0 0.0 0.00 0.00 0.00 84 1015.6
20260906003423 64 0 0.0 0.0 0.00 0.00 0.00 84 1015.7
20260906003303 64 0 0.0 0.0 0.00 0.00 0.00 84 1016.0
20260906003203 65 0 0.0 0.0 0.00 0.00 0.00 84 1015.6
20260906003102 65 0 0.0 0.0 0.00 0.00 0.00 83 1015.4
20260906003003 65 0 0.0 0.0 0.00 0.00 0.00 83 1016.0
20260906002902 65 0 0.0 0.0 0.00 0.00 0.00 83 1015.7
20260906002802 65 0 0.0 0.0 0.00 0.00 0.00 82 1015.7
20260906002703 65 0 0.0 0.0 0.00 0.00 0.00 82 1015.6
20260906002624 65 0 0.0 0.0 0.00 0.00 0.00 81 1015.9
20260906002503 65 0 0.0 0.0 0.00 0.00 0.00 81 1015.6
20260906002402 65 0 0.0 0.0 0.00 0.00 0.00 81 1015.6
20260906002305 66 0 0.0 0.0 0.00 0.00 0.00 80 1015.3
20260906002203 66 0 0.0 0.0 0.00 0.00 0.00 80 1015.5
20260906002102 66 0 0.0 0.0 0.00 0.00 0.00 79 1015.4
20260906002024 66 0 0.0 0.0 0.00 0.00 0.00 79 1015.4
20260906001903 66 0 0.0 0.0 0.00 0.00 0.00 78 1015.5
20260906001802 66 0 0.0 0.0 0.00 0.00 0.00 78 1015.6
20260906001725 66 0 0.0 0.0 0.00 0.00 0.00 78 1015.4
20260906001603 66 0 0.0 0.0 0.00 0.00 0.00 78 1015.4
20260906001502 66 0 0.0 0.0 0.00 0.00 0.00 76 1015.6
20260906001403 67 0 0.0 0.0 0.00 0.00 0.00 77 1015.5
20260906001303 67 0 0.0 0.0 0.00 0.00 0.00 76 1015.5
20260906001203 67 0 0.0 0.0 0.00 0.00 0.00 76 1015.5
20260906001103 67 0 0.0 0.0 0.00 0.00 0.00 75 1015.4
20260906001003 67 0 0.0 0.0 0.00 0.00 0.00 76 1015.5
20260906000902 67 0 0.0 0.0 0.00 0.00 0.00 76 1015.3
20260906000824 67 0 0.0 0.0 0.00 0.00 0.00 75 1015.3
20260906000724 67 0 0.0 0.0 0.00 0.00 0.00 74 1015.5
20260906000603 67 0 0.0 0.0 0.00 0.00 0.00 75 1015.3
20260906000503 68 0 0.0 0.0 0.00 0.00 0.00 74 1015.3
20260906000403 68 0 0.0 0.0 0.00 0.00 0.00 73 1015.2
20260906000304 68 0 0.0 0.0 0.00 0.00 0.00 73 1015.3
20260906000204 68 0 0.0 0.0 0.00 0.00 0.00 73 1015.3
20260906000104 68 0 0.0 0.0 0.00 0.00 0.00 74 1015.1
20260906000003 68 0 0.0 0.0 0.00 0.00 0.00 71 1015.1
20260905235904 68 0 0.0 0.0 0.00 0.00 0.00 72 1015.2
20260905235803 69 0 0.0 0.0 0.00 0.00 0.00 71 1015.3
20260905235703 69 0 0.0 0.0 0.00 0.00 0.00 71 1015.2
20260905235602 69 0 0.0 0.0 0.00 0.00 0.00 71 1015.2
20260905235503 69 108 0.0 2.0 0.00 0.00 0.00 70 1015.1
20260905235404 69 93 0.0 2.0 0.00 0.00 0.00 70 1015.2
20260905235306 69 93 0.0 2.0 0.00 0.00 0.00 70 1015.3
20260905235224 69 93 0.0 2.0 0.00 0.00 0.00 70 1015.3
20260905235103 69 93 0.0 2.0 0.00 0.00 0.00 69 1015.1
20260905235003 70 93 0.0 2.0 0.00 0.00 0.00 69 1015.1
20260905234924 70 93 0.0 2.0 0.00 0.00 0.00 69 1015.1
20260905234802 70 95 0.0 2.0 0.00 0.00 0.00 68 1015.1
20260905234724 70 85 0.0 2.0 0.00 0.00 0.00 68 1015.1
20260905234603 70 90 0.0 2.0 0.00 0.00 0.00 67 1015.0
20260905234524 70 92 0.0 2.0 0.00 0.00 0.00 66 1015.0
20260905234425 70 92 0.0 2.0 0.00 0.00 0.00 68 1015.0
20260905234302 71 95 0.0 2.0 0.00 0.00 0.00 67 1015.2
20260905234225 71 95 0.0 2.0 0.00 0.00 0.00 66 1015.1
20260905234103 71 88 0.0 2.0 0.00 0.00 0.00 66 1015.2
20260905234004 71 88 0.0 2.0 0.00 0.00 0.00 65 1015.1
20260905233903 71 88 0.0 2.0 0.00 0.00 0.00 65 1015.2
20260905233802 71 87 0.0 2.0 0.00 0.00 0.00 64 1015.1
20260905233703 72 95 0.0 2.0 0.00 0.00 0.00 65 1015.0
20260905233603 72 98 0.0 2.0 0.00 0.00 0.00 64 1015.1
20260905233502 72 87 0.0 2.0 0.00 0.00 0.00 65 1015.4
20260905233403 72 77 0.0 3.0 0.00 0.00 0.00 64 1015.2
20260905233302 72 77 0.0 3.0 0.00 0.00 0.00 65 1015.3
20260905233203 72 80 0.0 3.0 0.00 0.00 0.00 64 1015.2
20260905233103 72 85 0.0 3.0 0.00 0.00 0.00 64 1015.1
20260905233004 72 87 0.0 3.0 0.00 0.00 0.00 63 1015.0
20260905232904 72 88 0.0 3.0 0.00 0.00 0.00 64 1015.2
20260905232802 72 95 1.0 3.0 0.00 0.00 0.00 64 1015.3
20260905232723 73 86 1.0 4.0 0.00 0.00 0.00 63 1015.3
20260905232624 73 79 1.0 4.0 0.00 0.00 0.00 63 1015.1
20260905232525 73 81 1.0 4.0 0.00 0.00 0.00 63 1015.1
20260905232405 73 83 1.0 4.0 0.00 0.00 0.00 63 1015.1
20260905232305 73 83 1.0 4.0 0.00 0.00 0.00 62 1015.2
20260905232204 73 80 1.0 4.0 0.00 0.00 0.00 63 1015.2
20260905232103 73 80 1.0 4.0 0.00 0.00 0.00 62 1015.0
20260905232003 73 77 1.0 4.0 0.00 0.00 0.00 62 1014.9
20260905231902 73 73 1.0 6.0 0.00 0.00 0.00 62 1015.0
20260905231803 73 76 1.0 8.0 0.00 0.00 0.00 62 1014.8
20260905231703 73 84 1.0 8.0 0.00 0.00 0.00 62 1014.9
20260905231625 73 80 1.0 8.0 0.00 0.00 0.00 61 1014.8
20260905231503 73 79 1.0 8.0 0.00 0.00 0.00 61 1015.0
20260905231404 73 78 1.0 8.0 0.00 0.00 0.00 62 1015.0
20260905231302 73 81 1.0 8.0 0.00 0.00 0.00 62 1015.0
20260905231202 73 67 1.0 8.0 0.00 0.00 0.00 63 1014.8
20260905231104 73 68 2.0 8.0 0.00 0.00 0.00 63 1014.8
20260905231003 73 65 2.0 8.0 0.00 0.00 0.00 62 1015.0
20260905230903 74 68 2.0 8.0 0.00 0.00 0.00 64 1015.0
20260905230824 74 67 2.0 8.0 0.00 0.00 0.00 62 1014.9
20260905230724 74 66 2.0 8.0 0.00 0.00 0.00 63 1015.0
20260905230624 74 66 2.0 8.0 0.00 0.00 0.00 64 1014.8
20260905230524 74 56 2.0 8.0 0.00 0.00 0.00 63 1015.0
20260905230403 74 60 2.0 8.0 0.00 0.00 0.00 63 1014.9
20260905230303 74 52 2.0 8.0 0.00 0.00 0.00 63 1014.8
20260905230203 74 63 2.0 8.0 0.00 0.00 0.00 63 1014.9
20260905230003 74 64 2.0 4.0 0.00 0.00 0.00 62 1014.8
20260905225902 74 63 2.0 6.0 0.00 0.00 0.00 63 1014.8
20260905225803 74 58 2.0 6.0 0.00 0.00 0.00 63 1014.8
20260905225704 74 56 2.0 6.0 0.00 0.00 0.00 63 1014.8
20260905225604 74 58 2.0 6.0 0.00 0.00 0.00 63 1014.9
20260905225504 74 70 2.0 6.0 0.00 0.00 0.00 63 1014.8
20260905225403 74 64 1.0 6.0 0.00 0.00 0.00 63 1014.9
20260905225305 74 74 1.0 6.0 0.00 0.00 0.00 65 1014.8
20260905225204 74 73 1.0 6.0 0.00 0.00 0.00 65 1014.8
20260905225103 74 66 1.0 6.0 0.00 0.00 0.00 65 1014.8
20260905225003 74 74 1.0 6.0 0.00 0.00 0.00 65 1014.8
20260905224902 74 66 1.0 6.0 0.00 0.00 0.00 64 1014.9
20260905224825 74 77 1.0 6.0 0.00 0.00 0.00 65 1014.9
20260905224702 74 74 1.0 6.0 0.00 0.00 0.00 65 1014.8
20260905224604 74 68 1.0 6.0 0.00 0.00 0.00 66 1014.8
20260905224503 74 58 1.0 6.0 0.00 0.00 0.00 65 1014.8
20260905224404 74 59 1.0 6.0 0.00 0.00 0.00 67 1014.8
20260905224302 73 57 1.0 6.0 0.00 0.00 0.00 67 1015.0
20260905224204 73 61 1.0 6.0 0.00 0.00 0.00 67 1014.9
20260905224103 73 43 1.0 9.0 0.00 0.00 0.00 67 1014.8
20260905224024 73 51 1.0 9.0 0.00 0.00 0.00 68 1014.9
20260905223924 73 48 1.0 9.0 0.00 0.00 0.00 67 1014.9
20260905223804 73 48 1.0 9.0 0.00 0.00 0.00 66 1015.0
20260905223703 73 47 1.0 9.0 0.00 0.00 0.00 68 1014.8
20260905223603 73 50 1.0 9.0 0.00 0.00 0.00 66 1014.8
20260905223502 73 59 1.0 9.0 0.00 0.00 0.00 69 1014.7
20260905223404 73 61 1.0 9.0 0.00 0.00 0.00 68 1014.7
20260905223324 73 61 1.0 9.0 0.00 0.00 0.00 68 1014.8
20260905223203 73 58 1.0 9.0 0.00 0.00 0.00 67 1014.9
20260905223124 73 68 1.0 8.0 0.00 0.00 0.00 67 1014.7
20260905223003 73 73 1.0 4.0 0.00 0.00 0.00 70 1014.8
20260905222925 73 68 1.0 4.0 0.00 0.00 0.00 68 1014.6
20260905222802 73 64 1.0 4.0 0.00 0.00 0.00 69 1014.8
20260905222704 73 63 1.0 4.0 0.00 0.00 0.00 69 1014.8
20260905222602 73 64 1.0 4.0 0.00 0.00 0.00 69 1014.6
20260905222525 74 64 1.0 4.0 0.00 0.00 0.00 70 1014.5
20260905222404 74 65 1.0 4.0 0.00 0.00 0.00 69 1014.6
20260905222306 74 64 1.0 4.0 0.00 0.00 0.00 70 1014.6
20260905222203 74 73 1.0 4.0 0.00 0.00 0.00 71 1014.7
20260905222104 74 75 1.0 4.0 0.00 0.00 0.00 71 1014.6
20260905222002 74 64 1.0 4.0 0.00 0.00 0.00 70 1014.6
20260905221903 74 66 1.0 3.0 0.00 0.00 0.00 71 1014.6
20260905221824 74 67 1.0 3.0 0.00 0.00 0.00 70 1014.7
20260905221724 75 69 1.0 3.0 0.00 0.00 0.00 70 1014.6
20260905221603 75 69 1.0 3.0 0.00 0.00 0.00 69 1014.6
20260905221502 75 68 1.0 3.0 0.00 0.00 0.00 70 1014.5
20260905221423 75 68 1.0 3.0 0.00 0.00 0.00 69 1014.6
20260905221304 75 53 1.0 4.0 0.00 0.00 0.00 70 1014.6
20260905221203 75 54 1.0 6.0 0.00 0.00 0.00 70 1014.6
20260905221102 75 53 1.0 6.0 0.00 0.00 0.00 70 1014.4
20260905221004 76 60 1.0 6.0 0.00 0.00 0.00 69 1014.4
20260905220904 76 68 1.0 6.0 0.00 0.00 0.00 69 1014.3
20260905220803 76 70 1.0 6.0 0.00 0.00 0.00 68 1014.5
20260905220724 76 72 1.0 6.0 0.00 0.00 0.00 68 1014.5
20260905220603 76 73 1.0 6.0 0.00 0.00 0.00 68 1014.5
20260905220503 76 62 1.0 6.0 0.00 0.00 0.00 68 1014.5
20260905220402 76 63 1.0 6.0 0.00 0.00 0.00 68 1014.4
20260905220324 76 63 1.0 6.0 0.00 0.00 0.00 68 1014.4
20260905220203 76 59 1.0 4.0 0.00 0.00 0.00 68 1014.4
20260905220103 76 60 1.0 4.0 0.00 0.00 0.00 67 1014.4
20260905220003 76 61 1.0 4.0 0.00 0.00 0.00 68 1014.5
20260905215903 76 61 2.0 4.0 0.00 0.00 0.00 68 1014.3
20260905215824 76 64 2.0 7.0 0.00 0.00 0.00 67 1014.3
20260905215704 76 56 2.0 7.0 0.00 0.00 0.00 69 1014.4
20260905215603 76 53 2.0 7.0 0.00 0.00 0.00 69 1014.4
20260905215524 76 55 2.0 7.0 0.00 0.00 0.00 69 1014.4
20260905215402 75 61 2.0 7.0 0.00 0.00 0.00 68 1014.5
20260905215305 75 60 2.0 7.0 0.00 0.00 0.00 69 1014.2
20260905215202 75 63 2.0 7.0 0.00 0.00 0.00 70 1014.2
20260905215103 75 57 2.0 7.0 0.00 0.00 0.00 69 1014.2
20260905215004 75 56 2.0 7.0 0.00 0.00 0.00 69 1014.4
20260905214903 75 56 2.0 7.0 0.00 0.00 0.00 68 1014.4
20260905214803 76 60 2.0 6.0 0.00 0.00 0.00 69 1014.4
20260905214704 76 66 2.0 6.0 0.00 0.00 0.00 68 1014.2
20260905214603 76 72 2.0 6.0 0.00 0.00 0.00 68 1014.3
20260905214502 77 76 2.0 6.0 0.00 0.00 0.00 70 1014.3
20260905214403 77 79 1.0 6.0 0.00 0.00 0.00 67 1014.3
20260905214303 78 88 1.0 6.0 0.00 0.00 0.00 66 1014.2
20260905214202 78 90 1.0 6.0 0.00 0.00 0.00 65 1014.2
20260905214102 78 91 1.0 6.0 0.00 0.00 0.00 64 1014.1
20260905214003 79 90 1.0 6.0 0.00 0.00 0.00 64 1014.2
20260905213924 79 91 1.0 8.0 0.00 0.00 0.00 63 1014.1
20260905213825 78 83 1.0 8.0 0.00 0.00 0.00 65 1014.1
20260905213703 78 82 1.0 8.0 0.00 0.00 0.00 64 1014.1
20260905213604 77 89 2.0 8.0 0.00 0.00 0.00 66 1014.3
20260905213504 77 88 2.0 8.0 0.00 0.00 0.00 68 1014.0
20260905213402 76 79 2.0 8.0 0.00 0.00 0.00 68 1014.2
20260905213303 76 74 2.0 8.0 0.00 0.00 0.00 67 1014.2
20260905213204 76 73 2.0 8.0 0.00 0.00 0.00 69 1014.0
20260905213103 76 77 2.0 8.0 0.00 0.00 0.00 71 1014.3
20260905213003 76 67 2.0 8.0 0.00 0.00 0.00 70 1014.2
20260905212904 76 52 2.0 6.0 0.00 0.00 0.00 70 1014.2
20260905212802 76 46 1.0 6.0 0.00 0.00 0.00 71 1014.1
20260905212703 76 36 2.0 6.0 0.00 0.00 0.00 72 1014.3
20260905212602 76 29 2.0 6.0 0.00 0.00 0.00 72 1014.1
20260905212502 76 33 2.0 6.0 0.00 0.00 0.00 72 1014.0
20260905212403 76 36 2.0 6.0 0.00 0.00 0.00 72 1014.2
20260905212306 76 36 2.0 6.0 0.00 0.00 0.00 72 1014.2
20260905212225 76 38 2.0 6.0 0.00 0.00 0.00 72 1014.2
20260905212124 76 38 2.0 6.0 0.00 0.00 0.00 72 1014.1
20260905212003 76 41 2.0 6.0 0.00 0.00 0.00 72 1014.2
20260905211902 76 51 1.0 6.0 0.00 0.00 0.00 70 1014.3
20260905211803 76 59 1.0 6.0 0.00 0.00 0.00 72 1014.2
20260905211703 76 66 1.0 3.0 0.00 0.00 0.00 72 1014.2
20260905211602 77 72 1.0 4.0 0.00 0.00 0.00 71 1014.2
20260905211524 77 80 1.0 4.0 0.00 0.00 0.00 71 1014.0
20260905211402 77 82 1.0 6.0 0.00 0.00 0.00 72 1013.9
20260905211303 78 75 2.0 9.0 0.00 0.00 0.00 72 1014.0
20260905211204 77 71 2.0 9.0 0.00 0.00 0.00 71 1014.0
20260905211103 77 80 2.0 9.0 0.00 0.00 0.00 73 1014.1
20260905211003 77 83 2.0 9.0 0.00 0.00 0.00 74 1014.1
20260905210923 77 80 2.0 9.0 0.00 0.00 0.00 74 1014.0
20260905210803 77 72 2.0 9.0 0.00 0.00 0.00 72 1014.2
20260905210724 77 60 2.0 9.0 0.00 0.00 0.00 72 1014.2
20260905210602 78 60 2.0 9.0 0.00 0.00 0.00 72 1013.9
20260905210523 78 55 2.0 9.0 0.00 0.00 0.00 72 1013.9
20260905210403 78 55 2.0 9.0 0.00 0.00 0.00 73 1014.0
20260905210303 78 64 2.0 7.0 0.00 0.00 0.00 71 1014.0
20260905210224 78 68 2.0 7.0 0.00 0.00 0.00 71 1014.0
20260905210124 78 65 2.0 7.0 0.00 0.00 0.00 71 1014.2
20260905210003 79 59 2.0 7.0 0.00 0.00 0.00 70 1014.0
20260905205903 79 69 2.0 7.0 0.00 0.00 0.00 69 1014.0
20260905205804 79 75 2.0 7.0 0.00 0.00 0.00 69 1014.0
20260905205704 79 81 2.0 6.0 0.00 0.00 0.00 70 1014.0
20260905205602 79 80 1.0 6.0 0.00 0.00 0.00 72 1014.0
20260905205503 79 78 1.0 4.0 0.00 0.00 0.00 70 1014.2
20260905205402 78 77 1.0 4.0 0.00 0.00 0.00 72 1014.0
20260905205306 78 74 1.0 4.0 0.00 0.00 0.00 72 1014.0
20260905205202 78 72 1.0 4.0 0.00 0.00 0.00 73 1014.0
20260905205102 78 72 1.0 4.0 0.00 0.00 0.00 73 1014.0
20260905205004 78 74 1.0 4.0 0.00 0.00 0.00 71 1014.0
20260905204924 78 78 1.0 4.0 0.00 0.00 0.00 72 1013.9
20260905204804 79 70 1.0 3.0 0.00 0.00 0.00 70 1014.2
20260905204702 79 79 1.0 3.0 0.00 0.00 0.00 71 1014.1
20260905204603 79 77 1.0 3.0 0.00 0.00 0.00 72 1013.9
20260905204503 78 62 1.0 3.0 0.00 0.00 0.00 72 1014.2
20260905204403 78 53 1.0 3.0 0.00 0.00 0.00 74 1013.9
20260905204303 78 56 1.0 3.0 0.00 0.00 0.00 72 1013.9
20260905204203 78 56 1.0 3.0 0.00 0.00 0.00 72 1014.1
20260905204103 78 54 1.0 3.0 0.00 0.00 0.00 71 1014.0
20260905204003 78 49 1.0 3.0 0.00 0.00 0.00 73 1014.1
20260905203923 78 52 1.0 3.0 0.00 0.00 0.00 73 1014.1
20260905203803 78 57 1.0 3.0 0.00 0.00 0.00 71 1014.2
20260905203725 78 59 1.0 3.0 0.00 0.00 0.00 73 1014.1
20260905203603 78 60 1.0 3.0 0.00 0.00 0.00 72 1014.1
20260905203504 78 69 1.0 3.0 0.00 0.00 0.00 71 1014.2
20260905203402 78 80 1.0 3.0 0.00 0.00 0.00 73 1014.1
20260905203302 78 81 1.0 3.0 0.00 0.00 0.00 72 1014.0
20260905203203 78 77 1.0 4.0 0.00 0.00 0.00 73 1014.1
20260905203124 78 77 1.0 4.0 0.00 0.00 0.00 73 1014.1
20260905203003 78 79 1.0 4.0 0.00 0.00 0.00 72 1014.1
20260905202903 78 80 1.0 4.0 0.00 0.00 0.00 73 1014.0
20260905202804 78 79 1.0 4.0 0.00 0.00 0.00 74 1014.1
20260905202703 78 82 1.0 4.0 0.00 0.00 0.00 74 1014.0
20260905202602 78 83 1.0 4.0 0.00 0.00 0.00 73 1014.3
20260905202503 78 85 1.0 4.0 0.00 0.00 0.00 74 1014.1
20260905202402 78 80 1.0 4.0 0.00 0.00 0.00 73 1014.2
20260905202306 78 79 1.0 6.0 0.00 0.00 0.00 73 1014.1
20260905202203 78 85 1.0 6.0 0.00 0.00 0.00 73 1014.3
20260905202102 78 84 1.0 6.0 0.00 0.00 0.00 74 1014.3
20260905202003 78 77 1.0 6.0 0.00 0.00 0.00 74 1014.2
20260905201903 78 68 1.0 6.0 0.00 0.00 0.00 72 1014.2
20260905201803 78 66 1.0 6.0 0.00 0.00 0.00 74 1014.3
20260905201725 78 61 1.0 6.0 0.00 0.00 0.00 74 1014.2
20260905201602 78 52 1.0 6.0 0.00 0.00 0.00 74 1014.2
20260905201504 78 55 1.0 6.0 0.00 0.00 0.00 73 1014.1
20260905201404 78 62 1.0 6.0 0.00 0.00 0.00 73 1014.2
20260905201304 78 65 1.0 4.0 0.00 0.00 0.00 75 1014.2
20260905201203 77 70 1.0 4.0 0.00 0.00 0.00 75 1014.2
20260905201103 77 65 1.0 4.0 0.00 0.00 0.00 75 1014.3
20260905201003 77 69 1.0 4.0 0.00 0.00 0.00 75 1014.1
20260905200904 77 63 2.0 7.0 0.00 0.00 0.00 76 1014.3
20260905200824 77 63 2.0 7.0 0.00 0.00 0.00 76 1014.1
20260905200703 77 65 2.0 7.0 0.00 0.00 0.00 75 1014.2
20260905200604 77 70 2.0 7.0 0.00 0.00 0.00 76 1014.4
20260905200503 77 65 2.0 7.0 0.00 0.00 0.00 75 1014.2
20260905200425 77 65 2.0 7.0 0.00 0.00 0.00 76 1014.2
20260905200325 77 58 2.0 7.0 0.00 0.00 0.00 75 1014.2
20260905200202 78 62 2.0 7.0 0.00 0.00 0.00 73 1014.4
20260905200125 78 60 2.0 7.0 0.00 0.00 0.00 73 1014.4
20260905200023 78 63 2.0 7.0 0.00 0.00 0.00 74 1014.2
20260905195904 78 74 1.0 6.0 0.00 0.00 0.00 74 1014.1
20260905195803 78 71 1.0 6.0 0.00 0.00 0.00 72 1014.2
20260905195725 78 70 1.0 4.0 0.00 0.00 0.00 73 1014.2
20260905195602 78 62 1.0 4.0 0.00 0.00 0.00 73 1014.1
20260905195524 78 72 1.0 4.0 0.00 0.00 0.00 73 1014.1
20260905195403 78 77 1.0 4.0 0.00 0.00 0.00 73 1014.4
20260905195306 78 69 1.0 4.0 0.00 0.00 0.00 73 1014.2
20260905195203 78 66 1.0 4.0 0.00 0.00 0.00 74 1014.2
20260905195104 78 63 1.0 4.0 0.00 0.00 0.00 74 1014.3
20260905195004 78 63 1.0 4.0 0.00 0.00 0.00 73 1014.1
20260905194903 78 61 1.0 4.0 0.00 0.00 0.00 72 1014.2
20260905194803 78 66 1.0 4.0 0.00 0.00 0.00 75 1014.4
20260905194704 78 69 1.0 4.0 0.00 0.00 0.00 74 1014.1
20260905194603 78 70 1.0 4.0 0.00 0.00 0.00 73 1014.4
20260905194504 79 68 1.0 4.0 0.00 0.00 0.00 74 1014.2
20260905194404 80 71 1.0 4.0 0.00 0.00 0.00 72 1014.3
20260905194302 80 83 1.0 4.0 0.00 0.00 0.00 71 1014.1
20260905194202 80 84 1.0 4.0 0.00 0.00 0.00 70 1014.3
20260905194103 80 94 1.0 3.0 0.00 0.00 0.00 69 1014.0
20260905194003 80 94 1.0 3.0 0.00 0.00 0.00 70 1014.3
20260905193902 80 100 1.0 3.0 0.00 0.00 0.00 70 1014.2
20260905193823 81 102 1.0 3.0 0.00 0.00 0.00 70 1014.2
20260905193702 81 102 1.0 3.0 0.00 0.00 0.00 70 1014.3
20260905193625 81 106 1.0 3.0 0.00 0.00 0.00 69 1014.0
20260905193504 82 112 1.0 3.0 0.00 0.00 0.00 69 1014.3
20260905193424 83 115 0.0 2.0 0.00 0.00 0.00 70 1014.3
20260905193303 83 114 0.0 2.0 0.00 0.00 0.00 68 1014.2
20260905193202 82 113 0.0 2.0 0.00 0.00 0.00 68 1014.1
20260905193103 82 111 0.0 2.0 0.00 0.00 0.00 68 1014.2
20260905193004 81 114 0.0 2.0 0.00 0.00 0.00 70 1014.1
20260905192902 81 112 0.0 2.0 0.00 0.00 0.00 71 1014.3
20260905192803 80 112 0.0 2.0 0.00 0.00 0.00 71 1014.1
20260905192724 80 112 0.0 2.0 0.00 0.00 0.00 73 1014.2
20260905192602 80 112 0.0 2.0 0.00 0.00 0.00 74 1014.2
20260905192503 80 112 0.0 2.0 0.00 0.00 0.00 74 1014.3
20260905192403 80 112 0.0 2.0 0.00 0.00 0.00 73 1014.3
20260905192305 80 110 0.0 2.0 0.00 0.00 0.00 75 1014.2
20260905192204 80 109 0.0 2.0 0.00 0.00 0.00 74 1014.2
20260905192102 80 109 0.0 3.0 0.00 0.00 0.00 75 1014.3
20260905192003 80 106 0.0 3.0 0.00 0.00 0.00 74 1014.2
20260905191904 79 108 0.0 3.0 0.00 0.00 0.00 75 1014.2
20260905191803 80 111 0.0 3.0 0.00 0.00 0.00 74 1014.3
20260905191703 80 112 0.0 3.0 0.00 0.00 0.00 74 1014.4
20260905191602 79 112 0.0 3.0 0.00 0.00 0.00 73 1014.3
20260905191524 79 100 0.0 4.0 0.00 0.00 0.00 74 1014.2
20260905191403 79 101 0.0 4.0 0.00 0.00 0.00 74 1014.2
20260905191303 79 102 0.0 4.0 0.00 0.00 0.00 74 1014.3
20260905191204 79 101 0.0 4.0 0.00 0.00 0.00 74 1014.2
20260905191125 79 99 0.0 4.0 0.00 0.00 0.00 75 1014.3
20260905191003 79 98 0.0 4.0 0.00 0.00 0.00 74 1014.3
20260905190923 79 95 1.0 4.0 0.00 0.00 0.00 74 1014.3
20260905190803 79 90 1.0 4.0 0.00 0.00 0.00 75 1014.4
20260905190704 79 89 1.0 4.0 0.00 0.00 0.00 76 1014.6
20260905190604 79 83 1.0 4.0 0.00 0.00 0.00 75 1014.5
20260905190504 78 92 1.0 3.0 0.00 0.00 0.00 76 1014.3
20260905190402 78 96 1.0 3.0 0.00 0.00 0.00 76 1014.4
20260905190324 78 88 1.0 3.0 0.00 0.00 0.00 77 1014.4
20260905190203 78 71 1.0 4.0 0.00 0.00 0.00 76 1014.6
20260905190104 78 68 1.0 4.0 0.00 0.00 0.00 76 1014.5
20260905190025 78 63 1.0 4.0 0.00 0.00 0.00 76 1014.5
20260905185903 78 58 1.0 4.0 0.00 0.00 0.00 76 1014.4
20260905185802 78 58 1.0 4.0 0.00 0.00 0.00 75 1014.4
20260905185702 78 56 1.0 4.0 0.00 0.00 0.00 75 1014.6
20260905185602 78 59 1.0 4.0 0.00 0.00 0.00 75 1014.4
20260905185503 77 51 1.0 4.0 0.00 0.00 0.00 76 1014.6
20260905185424 77 53 1.0 4.0 0.00 0.00 0.00 77 1014.6
20260905185306 78 62 1.0 4.0 0.00 0.00 0.00 75 1014.5
20260905185203 78 72 1.0 4.0 0.00 0.00 0.00 76 1014.5
20260905185123 78 87 1.0 3.0 0.00 0.00 0.00 76 1014.3
20260905185003 78 100 1.0 3.0 0.00 0.00 0.00 75 1014.3
20260905184902 78 113 0.0 3.0 0.00 0.00 0.00 74 1014.6
20260905184802 78 116 1.0 3.0 0.00 0.00 0.00 75 1014.5
20260905184704 77 114 1.0 3.0 0.00 0.00 0.00 75 1014.4
20260905184603 77 114 1.0 3.0 0.00 0.00 0.00 75 1014.5
20260905184503 78 115 1.0 3.0 0.00 0.00 0.00 76 1014.7
20260905184403 78 115 1.0 3.0 0.00 0.00 0.00 75 1014.7
20260905184304 77 117 1.0 3.0 0.00 0.00 0.00 76 1014.5
20260905184202 77 111 1.0 3.0 0.00 0.00 0.00 76 1014.7
20260905184104 77 106 1.0 3.0 0.00 0.00 0.00 78 1014.5
20260905184003 77 105 1.0 3.0 0.00 0.00 0.00 76 1014.5
20260905183904 78 101 1.0 3.0 0.00 0.00 0.00 76 1014.7
20260905183824 78 97 1.0 3.0 0.00 0.00 0.00 75 1014.6
20260905183703 78 92 0.0 3.0 0.00 0.00 0.00 75 1014.5
20260905183604 78 91 0.0 3.0 0.00 0.00 0.00 76 1014.9
20260905183503 78 91 1.0 3.0 0.00 0.00 0.00 75 1014.5
20260905183403 78 89 1.0 3.0 0.00 0.00 0.00 78 1014.7
20260905183303 78 69 1.0 6.0 0.00 0.00 0.00 77 1014.8
20260905183203 78 67 1.0 6.0 0.00 0.00 0.00 78 1014.8
20260905183102 78 67 1.0 6.0 0.00 0.00 0.00 76 1014.7
20260905183002 78 65 1.0 6.0 0.00 0.00 0.00 78 1014.7
20260905182903 78 58 1.0 6.0 0.00 0.00 0.00 78 1014.7
20260905182803 78 51 1.0 6.0 0.00 0.00 0.00 79 1014.7
20260905182704 78 52 1.0 6.0 0.00 0.00 0.00 77 1014.5
20260905182602 78 55 1.0 6.0 0.00 0.00 0.00 77 1014.8
20260905182504 78 54 1.0 6.0 0.00 0.00 0.00 77 1014.7
20260905182404 79 70 1.0 6.0 0.00 0.00 0.00 75 1014.7
20260905182305 79 86 1.0 6.0 0.00 0.00 0.00 75 1014.7
20260905182203 78 82 1.0 6.0 0.00 0.00 0.00 75 1014.7
20260905182104 78 80 1.0 6.0 0.00 0.00 0.00 75 1014.7
20260905182003 78 80 1.0 6.0 0.00 0.00 0.00 76 1014.8
20260905181904 78 79 1.0 6.0 0.00 0.00 0.00 76 1014.5
20260905181803 78 84 1.0 6.0 0.00 0.00 0.00 77 1014.6
20260905181702 78 84 1.0 6.0 0.00 0.00 0.00 76 1014.7
20260905181625 78 78 1.0 6.0 0.00 0.00 0.00 76 1014.8
20260905181502 78 76 1.0 6.0 0.00 0.00 0.00 77 1014.7
20260905181403 78 64 1.0 3.0 0.00 0.00 0.00 78 1014.8
20260905181304 78 62 1.0 4.0 0.00 0.00 0.00 77 1014.8
20260905181225 78 63 1.0 4.0 0.00 0.00 0.00 77 1014.8
20260905181104 77 74 1.0 4.0 0.00 0.00 0.00 78 1014.7
20260905181002 77 76 1.0 4.0 0.00 0.00 0.00 78 1014.9
20260905180903 77 75 1.0 4.0 0.00 0.00 0.00 77 1014.7
20260905180803 77 79 1.0 4.0 0.00 0.00 0.00 78 1014.8
20260905180704 77 83 1.0 4.0 0.00 0.00 0.00 79 1014.9
20260905180603 77 101 1.0 4.0 0.00 0.00 0.00 78 1014.8
20260905180504 77 101 1.0 4.0 0.00 0.00 0.00 79 1014.8
20260905180403 77 99 1.0 4.0 0.00 0.00 0.00 78 1014.8
20260905180304 77 92 1.0 6.0 0.00 0.00 0.00 79 1014.8
20260905180202 77 91 1.0 6.0 0.00 0.00 0.00 78 1014.7
20260905180125 77 90 1.0 6.0 0.00 0.00 0.00 78 1014.7
20260905180003 77 93 1.0 6.0 0.00 0.00 0.00 77 1014.8
20260905175903 77 80 1.0 9.0 0.00 0.00 0.00 78 1014.8
20260905175803 77 79 1.0 9.0 0.00 0.00 0.00 78 1014.8
20260905175724 77 79 1.0 9.0 0.00 0.00 0.00 78 1014.8
20260905175624 77 76 1.0 9.0 0.00 0.00 0.00 77 1014.8
20260905175502 77 64 1.0 9.0 0.00 0.00 0.00 77 1014.6
20260905175402 77 62 1.0 9.0 0.00 0.00 0.00 77 1014.8
20260905175306 77 69 1.0 9.0 0.00 0.00 0.00 78 1014.8
20260905175204 77 64 1.0 9.0 0.00 0.00 0.00 77 1014.8
20260905175125 77 69 2.0 9.0 0.00 0.00 0.00 77 1014.7
20260905175004 77 67 2.0 9.0 0.00 0.00 0.00 77 1014.8
20260905174925 77 77 1.0 9.0 0.00 0.00 0.00 76 1014.8
20260905174803 77 76 1.0 6.0 0.00 0.00 0.00 78 1014.7
20260905174725 77 72 1.0 6.0 0.00 0.00 0.00 78 1014.9
20260905174603 77 76 1.0 6.0 0.00 0.00 0.00 78 1015.0
20260905174525 77 79 1.0 6.0 0.00 0.00 0.00 80 1014.7
20260905174403 77 92 1.0 6.0 0.00 0.00 0.00 79 1014.7
20260905174304 77 89 1.0 6.0 0.00 0.00 0.00 79 1014.6
20260905174203 77 94 1.0 6.0 0.00 0.00 0.00 78 1014.7
20260905174104 77 92 1.0 6.0 0.00 0.00 0.00 78 1014.8
20260905174003 77 93 1.0 6.0 0.00 0.00 0.00 79 1014.8
20260905173903 77 90 1.0 6.0 0.00 0.00 0.00 79 1014.8
20260905173802 77 79 1.0 6.0 0.00 0.00 0.00 78 1014.8
20260905173702 77 81 1.0 4.0 0.00 0.00 0.00 79 1014.7
20260905173602 77 84 1.0 4.0 0.00 0.00 0.00 79 1014.8
20260905173524 77 78 1.0 6.0 0.00 0.00 0.00 79 1014.7
20260905173403 77 69 1.0 6.0 0.00 0.00 0.00 78 1014.7
20260905173303 77 73 1.0 6.0 0.00 0.00 0.00 79 1014.6
20260905173225 77 74 2.0 6.0 0.00 0.00 0.00 80 1014.7
20260905173102 77 72 2.0 6.0 0.00 0.00 0.00 80 1014.7
20260905173004 76 72 2.0 6.0 0.00 0.00 0.00 80 1014.8
20260905172904 76 70 2.0 8.0 0.00 0.00 0.00 79 1014.7
20260905172825 76 71 2.0 8.0 0.00 0.00 0.00 80 1014.7
20260905172703 76 77 2.0 8.0 0.00 0.00 0.00 80 1014.8
20260905172603 76 74 2.0 8.0 0.00 0.00 0.00 79 1014.7
20260905172524 77 77 2.0 8.0 0.00 0.00 0.00 79 1014.9
20260905172404 77 82 2.0 8.0 0.00 0.00 0.00 79 1014.9
20260905172305 77 91 2.0 8.0 0.00 0.00 0.00 79 1014.8
20260905172224 77 95 2.0 8.0 0.00 0.00 0.00 79 1014.8
20260905172124 78 102 1.0 8.0 0.00 0.00 0.00 80 1014.7
20260905172004 78 102 2.0 8.0 0.00 0.00 0.00 78 1014.7
20260905171903 79 116 1.0 4.0 0.00 0.00 0.00 77 1014.5
20260905171824 79 125 1.0 4.0 0.00 0.00 0.00 76 1014.7
20260905171703 79 126 1.0 4.0 0.00 0.00 0.00 76 1014.7
20260905171623 79 125 1.0 4.0 0.00 0.00 0.00 78 1014.9
20260905171503 79 126 1.0 4.0 0.00 0.00 0.00 75 1014.9
20260905171403 79 122 1.0 4.0 0.00 0.00 0.00 75 1014.7
20260905171304 79 116 1.0 2.0 0.00 0.00 0.00 75 1014.9
20260905171203 78 112 0.0 2.0 0.00 0.00 0.00 77 1014.9
20260905171102 78 110 0.0 2.0 0.00 0.00 0.00 78 1014.9
20260905171004 78 109 0.0 2.0 0.00 0.00 0.00 77 1014.9
20260905170903 78 101 0.0 2.0 0.00 0.00 0.00 77 1015.0
20260905170803 78 102 0.0 2.0 0.00 0.00 0.00 80 1014.9
20260905170703 78 103 0.0 2.0 0.00 0.00 0.00 79 1014.9
20260905170603 78 105 0.0 2.0 0.00 0.00 0.00 79 1014.8
20260905170502 78 104 0.0 2.0 0.00 0.00 0.00 79 1015.1
20260905170403 78 93 0.0 2.0 0.00 0.00 0.00 79 1015.0
20260905170303 77 93 0.0 2.0 0.00 0.00 0.00 79 1014.9
20260905170204 77 96 0.0 2.0 0.00 0.00 0.00 79 1014.9
20260905170104 77 97 0.0 2.0 0.00 0.00 0.00 80 1014.7
20260905170004 77 99 0.0 2.0 0.00 0.00 0.00 80 1015.0
20260905165924 77 100 0.0 2.0 0.00 0.00 0.00 80 1014.9
20260905165802 77 97 0.0 3.0 0.00 0.00 0.00 80 1015.0
20260905165704 77 95 1.0 6.0 0.00 0.00 0.00 80 1015.0
20260905165602 77 102 1.0 6.0 0.00 0.00 0.00 81 1014.9
20260905165503 77 103 1.0 6.0 0.00 0.00 0.00 80 1014.9
20260905165403 77 107 1.0 6.0 0.00 0.00 0.00 81 1015.1
20260905165324 77 108 1.0 6.0 0.00 0.00 0.00 80 1015.0
20260905165204 77 107 1.0 6.0 0.00 0.00 0.00 80 1014.9
20260905165103 77 107 1.0 6.0 0.00 0.01 0.00 80 1014.7
20260905165004 77 106 0.0 6.0 0.00 0.01 0.00 80 1015.0
20260905164904 77 104 0.0 6.0 0.00 0.01 0.00 80 1014.9
20260905164803 77 112 0.0 6.0 0.00 0.01 0.00 81 1015.0
20260905164703 77 127 0.0 4.0 0.00 0.03 0.00 80 1014.9
20260905164603 77 111 0.0 1.0 0.00 0.04 0.00 81 1015.1
20260905164525 77 109 0.0 2.0 0.00 0.06 0.00 81 1015.1
20260905164404 77 106 0.0 2.0 0.00 0.07 0.00 82 1014.9
20260905164324 77 103 0.0 2.0 0.00 0.07 0.00 82 1015.1
20260905164203 76 98 0.0 3.0 0.00 0.07 0.00 82 1014.9
20260905164102 76 102 0.0 3.0 0.00 0.07 0.00 82 1015.0
20260905164024 76 91 1.0 7.0 0.00 0.07 0.00 82 1015.0
20260905163904 76 89 1.0 7.0 0.00 0.07 0.00 82 1015.1
20260905163802 76 92 1.0 7.0 0.00 0.07 0.00 82 1015.2
20260905163704 76 92 1.0 7.0 0.00 0.07 0.00 83 1015.1
20260905163624 76 91 1.0 7.0 0.00 0.07 0.00 84 1015.0
20260905163525 76 90 1.0 7.0 0.00 0.07 0.00 83 1015.1
20260905163404 76 92 1.0 7.0 0.00 0.07 0.00 83 1015.1
20260905163302 76 91 1.0 7.0 0.00 0.07 0.00 83 1015.1
20260905163203 76 92 1.0 7.0 0.00 0.07 0.00 83 1015.2
20260905163104 77 89 1.0 7.0 0.00 0.07 0.00 82 1015.1
20260905163003 77 106 0.0 3.0 0.00 0.07 0.00 82 1015.1
20260905162903 77 103 0.0 3.0 0.00 0.07 0.00 81 1015.0
20260905162803 77 99 0.0 3.0 0.00 0.07 0.00 81 1015.0
20260905162703 77 104 0.0 3.0 0.00 0.07 0.00 81 1015.0
20260905162604 78 112 0.0 3.0 0.00 0.07 0.00 81 1015.1
20260905162523 78 104 0.0 2.0 0.00 0.07 0.00 82 1015.1
20260905162402 77 103 0.0 2.0 0.00 0.07 0.00 81 1015.2
20260905162305 77 101 0.0 2.0 0.00 0.07 0.00 82 1015.0
20260905162203 77 98 0.0 2.0 0.00 0.07 0.00 82 1015.0
20260905162103 77 100 0.0 3.0 0.00 0.07 0.00 81 1015.1
20260905162024 77 98 0.0 3.0 0.00 0.07 0.00 81 1015.1
20260905161903 77 86 0.0 3.0 0.00 0.07 0.00 82 1015.2
20260905161802 76 86 0.0 3.0 0.00 0.07 0.00 83 1015.3
20260905161703 76 80 0.0 3.0 0.00 0.07 0.00 84 1015.3
20260905161603 76 80 0.0 3.0 0.00 0.07 0.00 84 1015.1
20260905161504 76 89 0.0 3.0 0.00 0.07 0.00 85 1015.4
20260905161402 76 80 0.0 3.0 0.00 0.07 0.00 84 1015.3
20260905161303 76 80 1.0 3.0 0.00 0.07 0.00 84 1015.1
20260905161204 76 77 1.0 3.0 0.00 0.07 0.00 84 1015.3
20260905161103 76 71 1.0 3.0 0.00 0.07 0.00 83 1015.2
20260905161004 76 69 0.0 3.0 0.00 0.07 0.00 82 1015.1
20260905160903 76 76 0.0 3.0 0.00 0.07 0.00 83 1015.3
20260905160825 76 76 0.0 3.0 0.00 0.07 0.00 83 1015.3
20260905160702 76 70 0.0 3.0 0.00 0.07 0.00 82 1015.3
20260905160603 76 70 0.0 3.0 0.00 0.07 0.00 82 1015.1
20260905160502 76 58 0.0 3.0 0.00 0.07 0.00 82 1015.2
20260905160403 76 70 0.0 3.0 0.00 0.07 0.00 82 1015.2
20260905160303 77 60 0.0 2.0 0.00 0.07 0.00 82 1015.3
20260905160202 77 44 0.0 3.0 0.00 0.07 0.00 82 1015.2
20260905160003 76 31 0.0 4.0 0.00 0.07 0.00 83 1015.1
20260905155903 76 38 1.0 4.0 0.00 0.07 0.00 82 1015.1
20260905155824 76 38 1.0 4.0 0.00 0.07 0.00 83 1015.4
20260905155703 76 43 1.0 4.0 0.00 0.07 0.00 83 1015.2
20260905155603 76 43 1.0 4.0 0.00 0.07 0.00 83 1015.3
20260905155502 76 43 1.0 4.0 0.00 0.07 0.00 83 1015.1
20260905155404 76 42 1.0 4.0 0.00 0.07 0.00 84 1015.2
20260905155306 76 42 1.0 4.0 0.00 0.07 0.00 84 1015.2
20260905155203 76 45 0.0 4.0 0.00 0.07 0.00 84 1015.2
20260905155103 77 31 0.0 4.0 0.00 0.07 0.00 82 1015.1
20260905155004 77 82 0.0 3.0 0.00 0.07 0.00 82 1015.1
20260905154902 77 100 0.0 1.0 0.00 0.07 0.00 82 1015.2
20260905154802 77 108 0.0 2.0 0.00 0.07 0.00 82 1015.1
20260905154703 77 39 0.0 2.0 0.00 0.07 0.00 83 1015.3
20260905154603 77 84 0.0 2.0 0.00 0.07 0.00 84 1015.3
20260905154502 77 97 0.0 2.0 0.00 0.07 0.00 84 1015.2
20260905154403 76 104 0.0 2.0 0.00 0.07 0.00 84 1015.3
20260905154325 76 105 0.0 2.0 0.00 0.07 0.00 85 1015.2
20260905154224 76 109 0.0 2.0 0.00 0.07 0.00 85 1015.2
20260905154103 76 108 0.0 2.0 0.00 0.07 0.00 85 1015.2
20260905154023 75 105 0.0 3.0 0.00 0.07 0.00 86 1015.3
20260905153903 75 103 1.0 3.0 0.00 0.07 0.00 86 1015.1
20260905153802 75 103 1.0 3.0 0.00 0.07 0.00 87 1015.0
20260905153703 75 105 1.0 3.0 0.00 0.07 0.00 87 1015.2
20260905153604 75 105 1.0 3.0 0.00 0.07 0.00 87 1015.1
20260905153525 75 106 1.0 3.0 0.00 0.07 0.00 87 1015.2
20260905153424 75 105 1.0 3.0 0.00 0.07 0.00 87 1015.2
20260905153304 75 103 0.0 3.0 0.00 0.07 0.00 87 1015.2
20260905153203 75 101 0.0 3.0 0.00 0.07 0.00 87 1015.3
20260905153103 75 101 0.0 3.0 0.00 0.07 0.00 87 1015.2
20260905153002 75 111 0.0 3.0 0.00 0.07 0.00 87 1015.2
20260905152903 75 109 0.0 3.0 0.00 0.07 0.00 86 1015.2
20260905152824 75 109 0.0 3.0 0.00 0.07 0.00 87 1015.1
20260905152704 75 109 0.0 3.0 0.00 0.07 0.00 86 1015.2
20260905152603 75 109 0.0 3.0 0.00 0.07 0.00 86 1015.2
20260905152503 75 109 0.0 3.0 0.00 0.07 0.00 86 1015.2
20260905152403 75 109 0.0 3.0 0.00 0.07 0.00 86 1015.2
20260905152306 75 109 0.0 3.0 0.00 0.07 0.00 86 1015.1
20260905152204 75 108 0.0 3.0 0.00 0.07 0.00 86 1015.3
20260905152103 75 109 0.0 3.0 0.00 0.07 0.00 86 1015.1
20260905152003 75 108 0.0 3.0 0.00 0.07 0.00 86 1015.1
20260905151903 75 112 0.0 1.0 0.00 0.07 0.00 86 1015.2
20260905151802 75 111 0.0 2.0 0.00 0.07 0.00 86 1015.1
20260905151703 75 99 0.0 2.0 0.00 0.07 0.00 86 1015.0
20260905151603 75 99 0.0 2.0 0.00 0.07 0.00 86 1015.1
20260905151525 75 99 0.0 2.0 0.00 0.07 0.00 86 1015.1
20260905151403 75 99 0.0 2.0 0.00 0.07 0.00 87 1015.1
20260905151304 75 99 0.0 2.0 0.00 0.07 0.00 87 1015.0
20260905151224 75 97 0.0 2.0 0.00 0.07 0.00 87 1015.0
20260905151102 75 97 0.0 2.0 0.00 0.07 0.00 88 1015.2
20260905151024 74 97 0.0 2.0 0.00 0.07 0.00 88 1015.2
20260905150903 75 95 0.0 2.0 0.00 0.07 0.00 88 1015.1
20260905150803 75 88 0.0 2.0 0.00 0.07 0.00 87 1015.0
20260905150702 75 98 0.0 2.0 0.00 0.07 0.00 87 1015.1
20260905150602 75 104 0.0 1.0 0.00 0.07 0.00 87 1015.0
20260905150503 74 104 0.0 1.0 0.00 0.07 0.00 87 1015.0
20260905150424 74 104 0.0 1.0 0.00 0.07 0.00 87 1015.0
20260905150303 74 104 0.0 1.0 0.00 0.07 0.00 88 1014.9
20260905150202 74 104 0.0 1.0 0.00 0.07 0.00 88 1014.9
20260905150124 74 106 0.0 1.0 0.00 0.07 0.00 88 1015.1